| time (UTC) | temp C | wind direction | speed KPH | gust KPH | rain 1hr cm | rain 24hr cm | rain mn cm | humidity % | barometer mb |
| 20260506211906 | 24 | 307 | 3.2 | 11.3 | 0.00 | 0.00 | 0.00 | 52 | 1018.2 |
| 20260506211759 | 24 | 323 | 3.2 | 11.3 | 0.00 | 0.00 | 0.00 | 52 | 1018.2 |
| 20260506211659 | 24 | 307 | 3.2 | 11.3 | 0.00 | 0.00 | 0.00 | 51 | 1018.2 |
| 20260506211603 | 25 | 316 | 1.6 | 11.3 | 0.00 | 0.00 | 0.00 | 50 | 1018.2 |
| 20260506211457 | 25 | 307 | 1.6 | 11.3 | 0.00 | 0.00 | 0.00 | 50 | 1018.2 |
| 20260506211416 | 25 | 305 | 1.6 | 9.7 | 0.00 | 0.00 | 0.00 | 51 | 1018.2 |
| 20260506211357 | 25 | 302 | 1.6 | 8.0 | 0.00 | 0.00 | 0.00 | 51 | 1018.2 |
| 20260506211253 | 25 | 20 | 1.6 | 8.0 | 0.00 | 0.00 | 0.00 | 51 | 1018.3 |
| 20260506211153 | 25 | 335 | 1.6 | 4.8 | 0.00 | 0.00 | 0.00 | 51 | 1018.3 |
| 20260506211141 | 25 | 124 | 1.6 | 6.4 | 0.00 | 0.00 | 0.00 | 51 | 1018.3 |
| 20260506211053 | 25 | 339 | 1.6 | 6.4 | 0.00 | 0.00 | 0.00 | 51 | 1018.3 |
| 20260506211025 | 25 | 124 | 1.6 | 6.4 | 0.00 | 0.00 | 0.00 | 51 | 1018.2 |
| 20260506210852 | 25 | 231 | 1.6 | 6.4 | 0.00 | 0.00 | 0.00 | 53 | 1018.2 |
| 20260506210747 | 25 | 228 | 1.6 | 6.4 | 0.00 | 0.00 | 0.00 | 52 | 1018.2 |
| 20260506210647 | 25 | 228 | 1.6 | 6.4 | 0.00 | 0.00 | 0.00 | 52 | 1018.3 |
| 20260506210547 | 25 | 177 | 1.6 | 6.4 | 0.00 | 0.00 | 0.00 | 53 | 1018.3 |
| 20260506210416 | 25 | 177 | 1.6 | 6.4 | 0.00 | 0.00 | 0.00 | 53 | 1018.3 |
| 20260506210343 | 25 | 136 | 1.6 | 6.4 | 0.00 | 0.00 | 0.00 | 53 | 1018.3 |
| 20260506210237 | 24 | 121 | 1.6 | 6.4 | 0.00 | 0.00 | 0.00 | 52 | 1018.3 |
| 20260506210141 | 24 | 139 | 1.6 | 6.4 | 0.00 | 0.00 | 0.00 | 53 | 1018.3 |
| 20260506210137 | 24 | 174 | 1.6 | 6.4 | 0.00 | 0.00 | 0.00 | 53 | 1018.3 |
| 20260506210038 | 24 | 139 | 1.6 | 6.4 | 0.00 | 0.00 | 0.00 | 54 | 1018.3 |
| 20260506210025 | 24 | 113 | 1.6 | 6.4 | 0.00 | 0.00 | 0.00 | 53 | 1018.3 |
| 20260506205835 | 24 | 308 | 1.6 | 6.4 | 0.00 | 0.00 | 0.00 | 53 | 1018.4 |
| 20260506205729 | 24 | 318 | 1.6 | 4.8 | 0.00 | 0.00 | 0.00 | 55 | 1018.4 |
| 20260506205629 | 24 | 318 | 1.6 | 8.0 | 0.00 | 0.00 | 0.00 | 56 | 1018.4 |
| 20260506205530 | 23 | 317 | 1.6 | 8.0 | 0.00 | 0.00 | 0.00 | 56 | 1018.4 |
| 20260506205429 | 23 | 318 | 3.2 | 8.0 | 0.00 | 0.00 | 0.00 | 55 | 1018.4 |
| 20260506205413 | 23 | 317 | 3.2 | 9.7 | 0.00 | 0.00 | 0.00 | 55 | 1018.4 |
| 20260506205329 | 23 | 333 | 3.2 | 9.7 | 0.00 | 0.00 | 0.00 | 57 | 1018.5 |
| 20260506205225 | 23 | 149 | 3.2 | 9.7 | 0.00 | 0.00 | 0.00 | 56 | 1018.4 |
| 20260506205124 | 23 | 228 | 3.2 | 9.7 | 0.00 | 0.00 | 0.00 | 55 | 1018.5 |
| 20260506205023 | 23 | 231 | 3.2 | 9.7 | 0.00 | 0.00 | 0.00 | 57 | 1018.5 |
| 20260506204913 | 23 | 319 | 3.2 | 9.7 | 0.00 | 0.00 | 0.00 | 56 | 1018.6 |
| 20260506204821 | 23 | 319 | 3.2 | 9.7 | 0.00 | 0.00 | 0.00 | 55 | 1018.6 |
| 20260506204721 | 23 | 308 | 3.2 | 9.7 | 0.00 | 0.00 | 0.00 | 56 | 1018.6 |
| 20260506204621 | 23 | 321 | 3.2 | 9.7 | 0.00 | 0.00 | 0.00 | 56 | 1018.6 |
| 20260506204522 | 23 | 312 | 3.2 | 9.7 | 0.00 | 0.00 | 0.00 | 57 | 1018.6 |
| 20260506204423 | 23 | 328 | 3.2 | 9.7 | 0.00 | 0.00 | 0.00 | 56 | 1018.6 |
| 20260506204412 | 23 | 318 | 3.2 | 8.0 | 0.00 | 0.00 | 0.00 | 56 | 1018.6 |
| 20260506204322 | 23 | 307 | 3.2 | 8.0 | 0.00 | 0.00 | 0.00 | 57 | 1018.6 |
| 20260506204222 | 23 | 307 | 3.2 | 8.0 | 0.00 | 0.00 | 0.00 | 55 | 1018.6 |
| 20260506204121 | 23 | 307 | 3.2 | 8.0 | 0.00 | 0.00 | 0.00 | 54 | 1018.6 |
| 20260506204021 | 23 | 338 | 3.2 | 8.0 | 0.00 | 0.00 | 0.00 | 55 | 1018.6 |
| 20260506203922 | 23 | 338 | 3.2 | 8.0 | 0.00 | 0.00 | 0.00 | 55 | 1018.6 |
| 20260506203911 | 23 | 337 | 3.2 | 8.0 | 0.00 | 0.00 | 0.00 | 55 | 1018.6 |
| 20260506203821 | 23 | 338 | 3.2 | 8.0 | 0.00 | 0.00 | 0.00 | 55 | 1018.7 |
| 20260506203719 | 23 | 15 | 3.2 | 8.0 | 0.00 | 0.00 | 0.00 | 56 | 1018.6 |
| 20260506203617 | 23 | 6 | 3.2 | 8.0 | 0.00 | 0.00 | 0.00 | 56 | 1018.7 |
| 20260506203517 | 23 | 12 | 3.2 | 8.0 | 0.00 | 0.00 | 0.00 | 56 | 1018.7 |
| 20260506203422 | 23 | 308 | 3.2 | 8.0 | 0.00 | 0.00 | 0.00 | 56 | 1018.8 |
| 20260506203412 | 23 | 356 | 3.2 | 8.0 | 0.00 | 0.00 | 0.00 | 56 | 1018.8 |
| 20260506203317 | 23 | 5 | 1.6 | 6.4 | 0.00 | 0.00 | 0.00 | 57 | 1018.8 |
| 20260506203217 | 23 | 308 | 1.6 | 6.4 | 0.00 | 0.00 | 0.00 | 56 | 1018.8 |
| 20260506203133 | 23 | 323 | 1.6 | 6.4 | 0.00 | 0.00 | 0.00 | 56 | 1018.8 |
| 20260506203117 | 23 | 339 | 1.6 | 6.4 | 0.00 | 0.00 | 0.00 | 56 | 1018.8 |
| 20260506203031 | 23 | 16 | 1.6 | 6.4 | 0.00 | 0.00 | 0.00 | 56 | 1018.8 |
| 20260506203020 | 23 | 323 | 1.6 | 6.4 | 0.00 | 0.00 | 0.00 | 56 | 1018.8 |
| 20260506202814 | 23 | 322 | 1.6 | 3.2 | 0.00 | 0.00 | 0.00 | 57 | 1018.8 |
| 20260506202713 | 23 | 321 | 1.6 | 3.2 | 0.00 | 0.00 | 0.00 | 55 | 1018.8 |
| 20260506202611 | 23 | 323 | 0.0 | 3.2 | 0.00 | 0.00 | 0.00 | 54 | 1018.8 |
| 20260506202507 | 23 | 323 | 0.0 | 3.2 | 0.00 | 0.00 | 0.00 | 54 | 1018.8 |
| 20260506202407 | 23 | 328 | 0.0 | 4.8 | 0.00 | 0.00 | 0.00 | 54 | 1018.8 |
| 20260506202306 | 23 | 338 | 0.0 | 4.8 | 0.00 | 0.00 | 0.00 | 56 | 1018.8 |
| 20260506202205 | 23 | 34 | 1.6 | 4.8 | 0.00 | 0.00 | 0.00 | 57 | 1018.8 |
| 20260506202103 | 23 | 322 | 1.6 | 4.8 | 0.00 | 0.00 | 0.00 | 58 | 1018.8 |
| 20260506201911 | 22 | 77 | 1.6 | 8.0 | 0.00 | 0.00 | 0.00 | 58 | 1018.9 |
| 20260506201857 | 22 | 77 | 1.6 | 8.0 | 0.00 | 0.00 | 0.00 | 58 | 1018.9 |
| 20260506201757 | 22 | 200 | 1.6 | 8.0 | 0.00 | 0.00 | 0.00 | 58 | 1018.9 |
| 20260506201655 | 22 | 311 | 3.2 | 8.0 | 0.00 | 0.00 | 0.00 | 58 | 1018.9 |
| 20260506201559 | 22 | 311 | 3.2 | 8.0 | 0.00 | 0.00 | 0.00 | 58 | 1018.9 |
| 20260506201455 | 22 | 311 | 3.2 | 8.0 | 0.00 | 0.00 | 0.00 | 56 | 1019.0 |
| 20260506201410 | 22 | 335 | 1.6 | 8.0 | 0.00 | 0.00 | 0.00 | 57 | 1019.0 |
| 20260506201353 | 22 | 314 | 1.6 | 8.0 | 0.00 | 0.00 | 0.00 | 57 | 1019.0 |
| 20260506201253 | 22 | 11 | 1.6 | 8.0 | 0.00 | 0.00 | 0.00 | 57 | 1019.0 |
| 20260506201151 | 22 | 12 | 1.6 | 8.0 | 0.00 | 0.00 | 0.00 | 56 | 1019.0 |
| 20260506201049 | 22 | 15 | 1.6 | 8.0 | 0.00 | 0.00 | 0.00 | 56 | 1019.1 |
| 20260506200946 | 22 | 290 | 1.6 | 8.0 | 0.00 | 0.00 | 0.00 | 57 | 1019.1 |
| 20260506200906 | 22 | 332 | 1.6 | 8.0 | 0.00 | 0.00 | 0.00 | 56 | 1019.1 |
| 20260506200843 | 22 | 332 | 1.6 | 8.0 | 0.00 | 0.00 | 0.00 | 56 | 1019.1 |
| 20260506200743 | 23 | 298 | 1.6 | 8.0 | 0.00 | 0.00 | 0.00 | 56 | 1019.1 |
| 20260506200643 | 23 | 12 | 1.6 | 4.8 | 0.00 | 0.00 | 0.00 | 55 | 1019.1 |
| 20260506200541 | 23 | 8 | 1.6 | 4.8 | 0.00 | 0.00 | 0.00 | 56 | 1019.1 |
| 20260506200435 | 22 | 8 | 1.6 | 4.8 | 0.00 | 0.00 | 0.00 | 55 | 1019.1 |
| 20260506200409 | 23 | 8 | 1.6 | 4.8 | 0.00 | 0.00 | 0.00 | 55 | 1019.1 |
| 20260506200336 | 23 | 8 | 1.6 | 4.8 | 0.00 | 0.00 | 0.00 | 55 | 1019.1 |
| 20260506200235 | 23 | 26 | 1.6 | 4.8 | 0.00 | 0.00 | 0.00 | 56 | 1019.1 |
| 20260506200135 | 23 | 69 | 1.6 | 4.8 | 0.00 | 0.00 | 0.00 | 56 | 1019.2 |
| 20260506200035 | 22 | 111 | 1.6 | 4.8 | 0.00 | 0.00 | 0.00 | 57 | 1019.1 |
| 20260506195931 | 22 | 340 | 1.6 | 4.8 | 0.00 | 0.00 | 0.00 | 57 | 1019.1 |
| 20260506195907 | 22 | 26 | 1.6 | 4.8 | 0.00 | 0.00 | 0.00 | 57 | 1019.1 |
| 20260506195829 | 22 | 77 | 1.6 | 4.8 | 0.00 | 0.00 | 0.00 | 56 | 1019.1 |
| 20260506195729 | 22 | 60 | 1.6 | 4.8 | 0.00 | 0.00 | 0.00 | 57 | 1019.2 |
| 20260506195629 | 22 | 78 | 1.6 | 4.8 | 0.00 | 0.00 | 0.00 | 57 | 1019.2 |
| 20260506195529 | 22 | 60 | 1.6 | 4.8 | 0.00 | 0.00 | 0.00 | 57 | 1019.2 |
| 20260506195425 | 22 | 40 | 1.6 | 4.8 | 0.00 | 0.00 | 0.00 | 58 | 1019.2 |
| 20260506195407 | 22 | 328 | 1.6 | 4.8 | 0.00 | 0.00 | 0.00 | 58 | 1019.2 |
| 20260506195325 | 22 | 328 | 1.6 | 6.4 | 0.00 | 0.00 | 0.00 | 58 | 1019.2 |
| 20260506195225 | 22 | 86 | 1.6 | 6.4 | 0.00 | 0.00 | 0.00 | 59 | 1019.2 |
| 20260506195130 | 21 | 235 | 1.6 | 9.7 | 0.00 | 0.00 | 0.00 | 60 | 1019.2 |
| 20260506195123 | 22 | 102 | 1.6 | 6.4 | 0.00 | 0.00 | 0.00 | 60 | 1019.2 |
| 20260506195026 | 21 | 113 | 1.6 | 6.4 | 0.00 | 0.00 | 0.00 | 61 | 1019.2 |
| 20260506195017 | 21 | 236 | 1.6 | 9.7 | 0.00 | 0.00 | 0.00 | 60 | 1019.2 |
| 20260506194815 | 21 | 319 | 3.2 | 11.3 | 0.00 | 0.00 | 0.00 | 59 | 1019.2 |
| 20260506194713 | 21 | 319 | 3.2 | 11.3 | 0.00 | 0.00 | 0.00 | 59 | 1019.2 |
| 20260506194613 | 21 | 299 | 3.2 | 11.3 | 0.00 | 0.00 | 0.00 | 58 | 1019.3 |
| 20260506194514 | 21 | 300 | 3.2 | 11.3 | 0.00 | 0.00 | 0.00 | 58 | 1019.2 |
| 20260506194411 | 21 | 305 | 3.2 | 11.3 | 0.00 | 0.00 | 0.00 | 59 | 1019.3 |
| 20260506194306 | 22 | 321 | 3.2 | 11.3 | 0.00 | 0.00 | 0.00 | 58 | 1019.3 |
| 20260506194207 | 22 | 340 | 3.2 | 11.3 | 0.00 | 0.00 | 0.00 | 58 | 1019.4 |
| 20260506194105 | 22 | 354 | 3.2 | 11.3 | 0.00 | 0.00 | 0.00 | 57 | 1019.4 |
| 20260506194006 | 22 | 300 | 3.2 | 11.3 | 0.00 | 0.00 | 0.00 | 58 | 1019.4 |
| 20260506193909 | 22 | 33 | 3.2 | 11.3 | 0.00 | 0.00 | 0.00 | 57 | 1019.4 |
| 20260506193859 | 22 | 339 | 3.2 | 11.3 | 0.00 | 0.00 | 0.00 | 57 | 1019.4 |
| 20260506193759 | 22 | 4 | 3.2 | 8.0 | 0.00 | 0.00 | 0.00 | 57 | 1019.4 |
| 20260506193700 | 22 | 51 | 3.2 | 8.0 | 0.00 | 0.00 | 0.00 | 57 | 1019.4 |
| 20260506193559 | 22 | 11 | 3.2 | 8.0 | 0.00 | 0.00 | 0.00 | 60 | 1019.4 |
| 20260506193459 | 22 | 158 | 3.2 | 8.0 | 0.00 | 0.00 | 0.00 | 59 | 1019.4 |
| 20260506193405 | 22 | 315 | 3.2 | 8.0 | 0.00 | 0.00 | 0.00 | 58 | 1019.5 |
| 20260506193356 | 22 | 314 | 3.2 | 8.0 | 0.00 | 0.00 | 0.00 | 58 | 1019.5 |
| 20260506193255 | 22 | 314 | 3.2 | 8.0 | 0.00 | 0.00 | 0.00 | 58 | 1019.5 |
| 20260506193155 | 22 | 63 | 3.2 | 8.0 | 0.00 | 0.00 | 0.00 | 57 | 1019.5 |
| 20260506193054 | 22 | 124 | 3.2 | 8.0 | 0.00 | 0.00 | 0.00 | 57 | 1019.5 |
| 20260506192951 | 22 | 148 | 3.2 | 8.0 | 0.00 | 0.00 | 0.00 | 56 | 1019.5 |
| 20260506192905 | 22 | 134 | 3.2 | 8.0 | 0.00 | 0.00 | 0.00 | 56 | 1019.5 |
| 20260506192845 | 22 | 124 | 3.2 | 8.0 | 0.00 | 0.00 | 0.00 | 56 | 1019.5 |
| 20260506192745 | 22 | 11 | 3.2 | 6.4 | 0.00 | 0.00 | 0.00 | 57 | 1019.6 |
| 20260506192643 | 22 | 346 | 3.2 | 8.0 | 0.00 | 0.00 | 0.00 | 58 | 1019.6 |
| 20260506192543 | 22 | 348 | 3.2 | 8.0 | 0.00 | 0.00 | 0.00 | 62 | 1019.5 |
| 20260506192444 | 21 | 225 | 3.2 | 8.0 | 0.00 | 0.00 | 0.00 | 61 | 1019.6 |
| 20260506192406 | 21 | 245 | 3.2 | 8.0 | 0.00 | 0.00 | 0.00 | 61 | 1019.6 |
| 20260506192341 | 21 | 236 | 3.2 | 11.3 | 0.00 | 0.00 | 0.00 | 61 | 1019.6 |
| 20260506192241 | 21 | 116 | 3.2 | 11.3 | 0.00 | 0.00 | 0.00 | 61 | 1019.7 |
| 20260506192142 | 21 | 321 | 3.2 | 11.3 | 0.00 | 0.00 | 0.00 | 61 | 1019.6 |
| 20260506192123 | 21 | 311 | 3.2 | 11.3 | 0.00 | 0.00 | 0.00 | 60 | 1019.6 |
| 20260506192041 | 21 | 321 | 3.2 | 11.3 | 0.00 | 0.00 | 0.00 | 60 | 1019.7 |
| 20260506192015 | 21 | 311 | 3.2 | 11.3 | 0.00 | 0.00 | 0.00 | 60 | 1019.6 |
| 20260506191841 | 21 | 323 | 3.2 | 11.3 | 0.00 | 0.00 | 0.00 | 60 | 1019.7 |
| 20260506191739 | 21 | 301 | 1.6 | 11.3 | 0.00 | 0.00 | 0.00 | 60 | 1019.6 |
| 20260506191640 | 22 | 347 | 1.6 | 11.3 | 0.00 | 0.00 | 0.00 | 60 | 1019.7 |
| 20260506191540 | 22 | 309 | 1.6 | 11.3 | 0.00 | 0.00 | 0.00 | 60 | 1019.7 |
| 20260506191439 | 22 | 319 | 1.6 | 11.3 | 0.00 | 0.00 | 0.00 | 60 | 1019.7 |
| 20260506191406 | 22 | 319 | 1.6 | 11.3 | 0.00 | 0.00 | 0.00 | 60 | 1019.7 |
| 20260506191339 | 22 | 335 | 1.6 | 6.4 | 0.00 | 0.00 | 0.00 | 61 | 1019.7 |
| 20260506191239 | 22 | 350 | 1.6 | 8.0 | 0.00 | 0.00 | 0.00 | 61 | 1019.7 |
| 20260506191140 | 21 | 359 | 1.6 | 8.0 | 0.00 | 0.00 | 0.00 | 61 | 1019.7 |
| 20260506191127 | 21 | 99 | 3.2 | 8.0 | 0.00 | 0.00 | 0.00 | 61 | 1019.8 |
| 20260506191039 | 21 | 18 | 3.2 | 8.0 | 0.00 | 0.00 | 0.00 | 61 | 1019.7 |
| 20260506191015 | 21 | 18 | 3.2 | 8.0 | 0.00 | 0.00 | 0.00 | 61 | 1019.8 |
| 20260506190839 | 21 | 29 | 1.6 | 8.0 | 0.00 | 0.00 | 0.00 | 62 | 1019.7 |
| 20260506190739 | 21 | 317 | 1.6 | 8.0 | 0.00 | 0.00 | 0.00 | 63 | 1019.7 |
| 20260506190640 | 21 | 304 | 1.6 | 8.0 | 0.00 | 0.00 | 0.00 | 62 | 1019.8 |
| 20260506190538 | 21 | 304 | 1.6 | 8.0 | 0.00 | 0.00 | 0.00 | 61 | 1019.8 |
| 20260506190437 | 21 | 301 | 1.6 | 8.0 | 0.00 | 0.00 | 0.00 | 61 | 1019.8 |
| 20260506190420 | 21 | 5 | 1.6 | 8.0 | 0.00 | 0.00 | 0.00 | 60 | 1019.8 |
| 20260506190335 | 22 | 302 | 1.6 | 8.0 | 0.00 | 0.00 | 0.00 | 61 | 1019.8 |
| 20260506190233 | 22 | 34 | 1.6 | 6.4 | 0.00 | 0.00 | 0.00 | 61 | 1019.8 |
| 20260506190127 | 22 | 15 | 1.6 | 6.4 | 0.00 | 0.00 | 0.00 | 63 | 1019.8 |
| 20260506190028 | 21 | 305 | 1.6 | 6.4 | 0.00 | 0.00 | 0.00 | 63 | 1019.8 |
| 20260506185927 | 21 | 307 | 1.6 | 6.4 | 0.00 | 0.00 | 0.00 | 64 | 1019.8 |
| 20260506185907 | 21 | 307 | 1.6 | 6.4 | 0.00 | 0.00 | 0.00 | 63 | 1019.8 |
| 20260506185825 | 21 | 307 | 1.6 | 6.4 | 0.00 | 0.00 | 0.00 | 63 | 1019.8 |
| 20260506185725 | 21 | 343 | 1.6 | 6.4 | 0.00 | 0.00 | 0.00 | 64 | 1019.8 |
| 20260506185625 | 21 | 317 | 1.6 | 4.8 | 0.00 | 0.00 | 0.00 | 64 | 1019.8 |
| 20260506185524 | 21 | 318 | 1.6 | 4.8 | 0.00 | 0.00 | 0.00 | 64 | 1019.8 |
| 20260506185424 | 21 | 20 | 1.6 | 4.8 | 0.00 | 0.00 | 0.00 | 64 | 1019.8 |
| 20260506185359 | 21 | 20 | 1.6 | 4.8 | 0.00 | 0.00 | 0.00 | 64 | 1019.8 |
| 20260506185323 | 21 | 43 | 1.6 | 6.4 | 0.00 | 0.00 | 0.00 | 64 | 1019.8 |
| 20260506185223 | 21 | 43 | 3.2 | 6.4 | 0.00 | 0.00 | 0.00 | 63 | 1019.8 |
| 20260506185115 | 21 | 335 | 3.2 | 8.0 | 0.00 | 0.00 | 0.00 | 63 | 1019.8 |
| 20260506185015 | 21 | 341 | 3.2 | 8.0 | 0.00 | 0.00 | 0.00 | 63 | 1019.8 |
| 20260506184916 | 21 | 332 | 3.2 | 8.0 | 0.00 | 0.00 | 0.00 | 64 | 1019.8 |
| 20260506184858 | 21 | 332 | 3.2 | 8.0 | 0.00 | 0.00 | 0.00 | 65 | 1019.8 |
| 20260506184813 | 21 | 342 | 3.2 | 8.0 | 0.00 | 0.00 | 0.00 | 65 | 1019.9 |
| 20260506184711 | 21 | 308 | 3.2 | 8.0 | 0.00 | 0.00 | 0.00 | 66 | 1019.9 |
| 20260506184607 | 21 | 235 | 3.2 | 8.0 | 0.00 | 0.00 | 0.00 | 65 | 1019.8 |
| 20260506184505 | 21 | 218 | 3.2 | 8.0 | 0.00 | 0.00 | 0.00 | 64 | 1019.9 |
| 20260506184410 | 21 | 198 | 1.6 | 8.0 | 0.00 | 0.00 | 0.00 | 63 | 1019.9 |
| 20260506184356 | 21 | 204 | 1.6 | 8.0 | 0.00 | 0.00 | 0.00 | 63 | 1019.9 |
| 20260506184303 | 21 | 229 | 1.6 | 8.0 | 0.00 | 0.00 | 0.00 | 64 | 1019.9 |
| 20260506184203 | 21 | 242 | 1.6 | 6.4 | 0.00 | 0.00 | 0.00 | 64 | 1019.9 |
| 20260506184101 | 21 | 256 | 1.6 | 6.4 | 0.00 | 0.00 | 0.00 | 64 | 1019.9 |
| 20260506184002 | 21 | 238 | 1.6 | 4.8 | 0.00 | 0.00 | 0.00 | 64 | 1019.9 |
| 20260506183855 | 21 | 238 | 1.6 | 4.8 | 0.00 | 0.00 | 0.00 | 63 | 1019.9 |
| 20260506183759 | 21 | 238 | 1.6 | 4.8 | 0.00 | 0.00 | 0.00 | 62 | 1019.9 |
| 20260506183657 | 21 | 238 | 1.6 | 4.8 | 0.00 | 0.00 | 0.00 | 62 | 1019.9 |
| 20260506183553 | 21 | 238 | 1.6 | 4.8 | 0.00 | 0.00 | 0.00 | 63 | 1020.0 |
| 20260506183451 | 21 | 217 | 1.6 | 4.8 | 0.00 | 0.00 | 0.00 | 64 | 1020.0 |
| 20260506183351 | 21 | 217 | 1.6 | 4.8 | 0.00 | 0.00 | 0.00 | 64 | 1020.0 |
| 20260506183251 | 21 | 217 | 1.6 | 4.8 | 0.00 | 0.00 | 0.00 | 61 | 1020.0 |
| 20260506183149 | 21 | 217 | 1.6 | 4.8 | 0.00 | 0.00 | 0.00 | 62 | 1020.1 |
| 20260506183047 | 21 | 228 | 0.0 | 4.8 | 0.00 | 0.00 | 0.00 | 63 | 1020.1 |
| 20260506182948 | 21 | 214 | 0.0 | 3.2 | 0.00 | 0.00 | 0.00 | 64 | 1020.1 |
| 20260506182853 | 21 | 345 | 0.0 | 3.2 | 0.00 | 0.00 | 0.00 | 64 | 1020.0 |
| 20260506182847 | 21 | 344 | 0.0 | 3.2 | 0.00 | 0.00 | 0.00 | 64 | 1020.1 |
| 20260506182748 | 21 | 345 | 0.0 | 3.2 | 0.00 | 0.00 | 0.00 | 64 | 1020.1 |
| 20260506182645 | 21 | 344 | 0.0 | 3.2 | 0.00 | 0.00 | 0.00 | 64 | 1020.1 |
| 20260506182545 | 21 | 335 | 0.0 | 3.2 | 0.00 | 0.00 | 0.00 | 64 | 1020.1 |
| 20260506182443 | 21 | 67 | 0.0 | 3.2 | 0.00 | 0.00 | 0.00 | 64 | 1020.1 |
| 20260506182343 | 21 | 338 | 0.0 | 3.2 | 0.00 | 0.00 | 0.00 | 64 | 1020.1 |
| 20260506182244 | 21 | 294 | 0.0 | 3.2 | 0.00 | 0.00 | 0.00 | 64 | 1020.1 |
| 20260506182143 | 21 | 293 | 0.0 | 4.8 | 0.00 | 0.00 | 0.00 | 67 | 1020.1 |
| 20260506182044 | 21 | 293 | 1.6 | 4.8 | 0.00 | 0.00 | 0.00 | 67 | 1020.1 |
| 20260506181942 | 20 | 290 | 1.6 | 4.8 | 0.00 | 0.00 | 0.00 | 68 | 1020.1 |
| 20260506181851 | 20 | 290 | 1.6 | 4.8 | 0.00 | 0.00 | 0.00 | 68 | 1020.1 |
| 20260506181839 | 20 | 353 | 1.6 | 4.8 | 0.00 | 0.00 | 0.00 | 68 | 1020.1 |
| 20260506181739 | 20 | 208 | 1.6 | 4.8 | 0.00 | 0.00 | 0.00 | 68 | 1020.1 |
| 20260506181637 | 20 | 219 | 1.6 | 4.8 | 0.00 | 0.00 | 0.00 | 69 | 1020.1 |
| 20260506181626 | 20 | 243 | 1.6 | 4.8 | 0.00 | 0.00 | 0.00 | 67 | 1020.1 |
| 20260506181537 | 20 | 232 | 1.6 | 4.8 | 0.00 | 0.00 | 0.00 | 69 | 1020.1 |
| 20260506181514 | 20 | 243 | 1.6 | 4.8 | 0.00 | 0.00 | 0.00 | 68 | 1020.1 |
| 20260506181337 | 20 | 243 | 1.6 | 4.8 | 0.00 | 0.00 | 0.00 | 67 | 1020.1 |
| 20260506181235 | 20 | 243 | 1.6 | 4.8 | 0.00 | 0.00 | 0.00 | 66 | 1020.1 |
| 20260506181133 | 20 | 224 | 1.6 | 4.8 | 0.00 | 0.00 | 0.00 | 67 | 1020.1 |
| 20260506181115 | 20 | 330 | 1.6 | 3.2 | 0.00 | 0.00 | 0.00 | 67 | 1020.1 |
| 20260506181033 | 20 | 127 | 1.6 | 4.8 | 0.00 | 0.00 | 0.00 | 68 | 1020.1 |
| 20260506180959 | 20 | 330 | 1.6 | 3.2 | 0.00 | 0.00 | 0.00 | 67 | 1020.1 |
| 20260506180831 | 20 | 330 | 1.6 | 3.2 | 0.00 | 0.00 | 0.00 | 67 | 1020.1 |
| 20260506180734 | 20 | 330 | 1.6 | 3.2 | 0.00 | 0.00 | 0.00 | 67 | 1020.1 |
| 20260506180631 | 20 | 138 | 1.6 | 3.2 | 0.00 | 0.00 | 0.00 | 67 | 1020.1 |
| 20260506180531 | 20 | 138 | 1.6 | 3.2 | 0.00 | 0.00 | 0.00 | 67 | 1020.1 |
| 20260506180431 | 20 | 138 | 1.6 | 3.2 | 0.00 | 0.00 | 0.00 | 67 | 1020.1 |
| 20260506180350 | 20 | 139 | 1.6 | 3.2 | 0.00 | 0.00 | 0.00 | 67 | 1020.1 |
| 20260506180325 | 20 | 138 | 1.6 | 3.2 | 0.00 | 0.00 | 0.00 | 67 | 1020.2 |
| 20260506180225 | 20 | 146 | 0.0 | 3.2 | 0.00 | 0.00 | 0.00 | 67 | 1020.2 |
| 20260506180125 | 20 | 146 | 0.0 | 3.2 | 0.00 | 0.00 | 0.00 | 68 | 1020.2 |
| 20260506180023 | 20 | 146 | 0.0 | 3.2 | 0.00 | 0.00 | 0.00 | 68 | 1020.2 |
| 20260506175924 | 20 | 183 | 0.0 | 3.2 | 0.00 | 0.00 | 0.00 | 70 | 1020.2 |
| 20260506175852 | 20 | 224 | 0.0 | 1.6 | 0.00 | 0.00 | 0.00 | 70 | 1020.2 |
| 20260506175817 | 20 | 224 | 0.0 | 3.2 | 0.00 | 0.00 | 0.00 | 70 | 1020.2 |
| 20260506175717 | 20 | 224 | 1.6 | 3.2 | 0.00 | 0.00 | 0.00 | 70 | 1020.2 |
| 20260506175617 | 20 | 224 | 1.6 | 3.2 | 0.00 | 0.00 | 0.00 | 69 | 1020.2 |
| 20260506175517 | 20 | 224 | 1.6 | 4.8 | 0.00 | 0.00 | 0.00 | 70 | 1020.2 |
| 20260506175417 | 19 | 224 | 1.6 | 4.8 | 0.00 | 0.00 | 0.00 | 72 | 1020.2 |
| 20260506175348 | 19 | 224 | 1.6 | 4.8 | 0.00 | 0.00 | 0.00 | 72 | 1020.2 |
| 20260506175313 | 19 | 224 | 1.6 | 4.8 | 0.00 | 0.00 | 0.00 | 72 | 1020.2 |
| 20260506175211 | 19 | 224 | 1.6 | 4.8 | 0.00 | 0.00 | 0.00 | 72 | 1020.2 |
| 20260506175110 | 19 | 224 | 1.6 | 4.8 | 0.00 | 0.00 | 0.00 | 72 | 1020.2 |
| 20260506175009 | 18 | 133 | 1.6 | 4.8 | 0.00 | 0.00 | 0.00 | 72 | 1020.2 |
| 20260506174909 | 18 | 132 | 1.6 | 4.8 | 0.00 | 0.00 | 0.00 | 72 | 1020.2 |
| 20260506174846 | 18 | 133 | 1.6 | 4.8 | 0.00 | 0.00 | 0.00 | 72 | 1020.2 |
| 20260506174805 | 18 | 115 | 1.6 | 4.8 | 0.00 | 0.00 | 0.00 | 72 | 1020.2 |
| 20260506174703 | 18 | 120 | 1.6 | 4.8 | 0.00 | 0.00 | 0.00 | 71 | 1020.2 |
| 20260506174603 | 18 | 204 | 1.6 | 4.8 | 0.00 | 0.00 | 0.00 | 71 | 1020.2 |
| 20260506174504 | 18 | 235 | 0.0 | 4.8 | 0.00 | 0.00 | 0.00 | 72 | 1020.1 |
| 20260506174346 | 18 | 238 | 0.0 | 3.2 | 0.00 | 0.00 | 0.00 | 72 | 1020.2 |
| 20260506174258 | 18 | 217 | 0.0 | 3.2 | 0.00 | 0.00 | 0.00 | 71 | 1020.2 |
| 20260506174155 | 18 | 217 | 0.0 | 3.2 | 0.00 | 0.00 | 0.00 | 71 | 1020.2 |
| 20260506174055 | 18 | 217 | 0.0 | 3.2 | 0.00 | 0.00 | 0.00 | 72 | 1020.1 |
| 20260506173955 | 18 | 222 | 1.6 | 6.4 | 0.00 | 0.00 | 0.00 | 72 | 1020.2 |
| 20260506173845 | 18 | 222 | 1.6 | 6.4 | 0.00 | 0.00 | 0.00 | 72 | 1020.2 |
| 20260506173750 | 18 | 222 | 1.6 | 6.4 | 0.00 | 0.00 | 0.00 | 72 | 1020.2 |
| 20260506173649 | 18 | 222 | 1.6 | 6.4 | 0.00 | 0.00 | 0.00 | 72 | 1020.2 |
| 20260506173550 | 18 | 222 | 1.6 | 6.4 | 0.00 | 0.00 | 0.00 | 72 | 1020.2 |
| 20260506173447 | 18 | 217 | 1.6 | 6.4 | 0.00 | 0.00 | 0.00 | 73 | 1020.2 |
| 20260506173351 | 18 | 217 | 1.6 | 6.4 | 0.00 | 0.00 | 0.00 | 72 | 1020.2 |
| 20260506173241 | 18 | 217 | 1.6 | 6.4 | 0.00 | 0.00 | 0.00 | 72 | 1020.2 |
| 20260506173141 | 18 | 222 | 1.6 | 6.4 | 0.00 | 0.00 | 0.00 | 71 | 1020.2 |
| 20260506173042 | 18 | 238 | 0.0 | 6.4 | 0.00 | 0.00 | 0.00 | 71 | 1020.3 |
| 20260506172941 | 18 | 231 | 0.0 | 4.8 | 0.00 | 0.00 | 0.00 | 72 | 1020.2 |
| 20260506172842 | 18 | 195 | 0.0 | 4.8 | 0.00 | 0.00 | 0.00 | 74 | 1020.3 |
| 20260506172735 | 18 | 138 | 0.0 | 4.8 | 0.00 | 0.00 | 0.00 | 75 | 1020.2 |
| 20260506172635 | 18 | 139 | 0.0 | 4.8 | 0.00 | 0.00 | 0.00 | 75 | 1020.2 |
| 20260506172536 | 18 | 139 | 0.0 | 4.8 | 0.00 | 0.00 | 0.00 | 75 | 1020.2 |
| 20260506172433 | 18 | 139 | 0.0 | 4.8 | 0.00 | 0.00 | 0.00 | 75 | 1020.2 |
| 20260506172340 | 18 | 126 | 0.0 | 4.8 | 0.00 | 0.00 | 0.00 | 75 | 1020.2 |
| 20260506172333 | 18 | 125 | 0.0 | 4.8 | 0.00 | 0.00 | 0.00 | 75 | 1020.2 |
| 20260506172233 | 17 | 231 | 1.6 | 4.8 | 0.00 | 0.00 | 0.00 | 75 | 1020.2 |
| 20260506172131 | 17 | 231 | 1.6 | 6.4 | 0.00 | 0.00 | 0.00 | 75 | 1020.2 |
| 20260506172058 | 17 | 231 | 1.6 | 6.4 | 0.00 | 0.00 | 0.00 | 75 | 1020.2 |
| 20260506172031 | 17 | 231 | 1.6 | 6.4 | 0.00 | 0.00 | 0.00 | 75 | 1020.2 |
| 20260506171948 | 17 | 231 | 1.6 | 6.4 | 0.00 | 0.00 | 0.00 | 75 | 1020.2 |
| 20260506171827 | 17 | 231 | 1.6 | 6.4 | 0.00 | 0.00 | 0.00 | 75 | 1020.2 |
| 20260506171723 | 17 | 231 | 1.6 | 6.4 | 0.00 | 0.00 | 0.00 | 75 | 1020.2 |
| 20260506171623 | 17 | 231 | 1.6 | 6.4 | 0.00 | 0.00 | 0.00 | 76 | 1020.2 |
| 20260506171523 | 17 | 231 | 1.6 | 6.4 | 0.00 | 0.00 | 0.00 | 76 | 1020.2 |
| 20260506171421 | 17 | 231 | 3.2 | 6.4 | 0.00 | 0.00 | 0.00 | 76 | 1020.2 |
| 20260506171319 | 17 | 231 | 1.6 | 6.4 | 0.00 | 0.00 | 0.00 | 76 | 1020.2 |
| 20260506171215 | 17 | 240 | 1.6 | 6.4 | 0.00 | 0.00 | 0.00 | 76 | 1020.2 |
| 20260506171114 | 17 | 242 | 1.6 | 6.4 | 0.00 | 0.00 | 0.00 | 76 | 1020.2 |
| 20260506171013 | 17 | 222 | 1.6 | 6.4 | 0.00 | 0.00 | 0.00 | 76 | 1020.2 |
| 20260506170911 | 17 | 222 | 1.6 | 6.4 | 0.00 | 0.00 | 0.00 | 76 | 1020.2 |
| 20260506170811 | 17 | 222 | 1.6 | 6.4 | 0.00 | 0.00 | 0.00 | 76 | 1020.3 |
| 20260506170705 | 17 | 222 | 1.6 | 6.4 | 0.00 | 0.00 | 0.00 | 76 | 1020.3 |
| 20260506170605 | 17 | 222 | 1.6 | 6.4 | 0.00 | 0.00 | 0.00 | 75 | 1020.3 |
| 20260506170557 | 17 | 227 | 1.6 | 4.8 | 0.00 | 0.00 | 0.00 | 77 | 1020.3 |
| 20260506170505 | 17 | 226 | 0.0 | 6.4 | 0.00 | 0.00 | 0.00 | 76 | 1020.3 |
| 20260506170444 | 17 | 226 | 0.0 | 4.8 | 0.00 | 0.00 | 0.00 | 77 | 1020.3 |
| 20260506170305 | 17 | 226 | 1.6 | 4.8 | 0.00 | 0.00 | 0.00 | 77 | 1020.3 |
| 20260506170201 | 17 | 226 | 1.6 | 4.8 | 0.00 | 0.00 | 0.00 | 76 | 1020.2 |
| 20260506170100 | 17 | 226 | 1.6 | 6.4 | 0.00 | 0.00 | 0.00 | 77 | 1020.3 |
| 20260506170000 | 17 | 231 | 1.6 | 6.4 | 0.00 | 0.00 | 0.00 | 78 | 1020.2 |
| 20260506165857 | 17 | 231 | 1.6 | 6.4 | 0.00 | 0.00 | 0.00 | 78 | 1020.2 |
| 20260506165833 | 17 | 231 | 1.6 | 6.4 | 0.00 | 0.00 | 0.00 | 77 | 1020.2 |
| 20260506165758 | 16 | 231 | 1.6 | 6.4 | 0.00 | 0.00 | 0.00 | 77 | 1020.2 |
| 20260506165651 | 16 | 146 | 1.6 | 6.4 | 0.00 | 0.00 | 0.00 | 78 | 1020.2 |
| 20260506165552 | 16 | 146 | 1.6 | 6.4 | 0.00 | 0.00 | 0.00 | 78 | 1020.2 |
| 20260506165451 | 16 | 147 | 3.2 | 6.4 | 0.00 | 0.00 | 0.00 | 78 | 1020.2 |
| 20260506165351 | 16 | 147 | 3.2 | 6.4 | 0.00 | 0.00 | 0.00 | 78 | 1020.2 |
| 20260506165331 | 16 | 146 | 3.2 | 6.4 | 0.00 | 0.00 | 0.00 | 78 | 1020.1 |
| 20260506165252 | 16 | 151 | 3.2 | 6.4 | 0.00 | 0.00 | 0.00 | 78 | 1020.1 |
| 20260506165145 | 16 | 136 | 3.2 | 6.4 | 0.00 | 0.00 | 0.00 | 77 | 1020.2 |
| 20260506165046 | 16 | 211 | 3.2 | 6.4 | 0.00 | 0.00 | 0.00 | 77 | 1020.2 |
| 20260506164946 | 16 | 226 | 3.2 | 6.4 | 0.00 | 0.00 | 0.00 | 77 | 1020.2 |
| 20260506164833 | 16 | 219 | 3.2 | 6.4 | 0.00 | 0.00 | 0.00 | 77 | 1020.2 |
| 20260506164745 | 16 | 212 | 3.2 | 6.4 | 0.00 | 0.00 | 0.00 | 77 | 1020.2 |
| 20260506164645 | 16 | 236 | 3.2 | 6.4 | 0.00 | 0.00 | 0.00 | 78 | 1020.3 |
| 20260506164545 | 16 | 155 | 1.6 | 6.4 | 0.00 | 0.00 | 0.00 | 78 | 1020.2 |
| 20260506164446 | 16 | 138 | 3.2 | 6.4 | 0.00 | 0.00 | 0.00 | 78 | 1020.2 |
| 20260506164343 | 16 | 149 | 3.2 | 6.4 | 0.00 | 0.00 | 0.00 | 78 | 1020.2 |
| 20260506164329 | 16 | 150 | 1.6 | 6.4 | 0.00 | 0.00 | 0.00 | 79 | 1020.2 |
| 20260506164244 | 16 | 141 | 1.6 | 6.4 | 0.00 | 0.00 | 0.00 | 79 | 1020.2 |
| 20260506164143 | 16 | 148 | 3.2 | 6.4 | 0.00 | 0.00 | 0.00 | 78 | 1020.2 |
| 20260506164043 | 16 | 212 | 3.2 | 6.4 | 0.00 | 0.00 | 0.00 | 78 | 1020.2 |
| 20260506163944 | 16 | 226 | 1.6 | 8.0 | 0.00 | 0.00 | 0.00 | 78 | 1020.2 |
| 20260506163829 | 16 | 239 | 1.6 | 8.0 | 0.00 | 0.00 | 0.00 | 79 | 1020.2 |
| 20260506163743 | 16 | 239 | 1.6 | 8.0 | 0.00 | 0.00 | 0.00 | 78 | 1020.2 |
| 20260506163641 | 16 | 239 | 1.6 | 8.0 | 0.00 | 0.00 | 0.00 | 78 | 1020.2 |
| 20260506163540 | 16 | 239 | 1.6 | 8.0 | 0.00 | 0.00 | 0.00 | 78 | 1020.2 |
| 20260506163440 | 16 | 239 | 1.6 | 8.0 | 0.00 | 0.00 | 0.00 | 78 | 1020.2 |
| 20260506163331 | 16 | 248 | 1.6 | 8.0 | 0.00 | 0.00 | 0.00 | 78 | 1020.2 |
| 20260506163139 | 16 | 153 | 1.6 | 8.0 | 0.00 | 0.00 | 0.00 | 78 | 1020.2 |
| 20260506163039 | 16 | 217 | 1.6 | 8.0 | 0.00 | 0.00 | 0.00 | 79 | 1020.2 |
| 20260506162935 | 16 | 138 | 1.6 | 3.2 | 0.00 | 0.00 | 0.00 | 79 | 1020.2 |
| 20260506162830 | 16 | 231 | 1.6 | 3.2 | 0.00 | 0.00 | 0.00 | 80 | 1020.2 |
| 20260506162733 | 16 | 231 | 1.6 | 3.2 | 0.00 | 0.00 | 0.00 | 79 | 1020.2 |
| 20260506162632 | 16 | 231 | 1.6 | 3.2 | 0.00 | 0.00 | 0.00 | 79 | 1020.2 |
| 20260506162531 | 16 | 214 | 0.0 | 4.8 | 0.00 | 0.00 | 0.00 | 80 | 1020.2 |
| 20260506162427 | 16 | 137 | 0.0 | 4.8 | 0.00 | 0.00 | 0.00 | 80 | 1020.2 |
| 20260506162333 | 16 | 222 | 0.0 | 4.8 | 0.00 | 0.00 | 0.00 | 80 | 1020.2 |
| 20260506162325 | 16 | 221 | 0.0 | 4.8 | 0.00 | 0.00 | 0.00 | 80 | 1020.2 |
| 20260506162225 | 16 | 222 | 1.6 | 6.4 | 0.00 | 0.00 | 0.00 | 80 | 1020.2 |
| 20260506162125 | 16 | 222 | 1.6 | 6.4 | 0.00 | 0.00 | 0.00 | 80 | 1020.1 |
| 20260506162025 | 16 | 222 | 1.6 | 6.4 | 0.00 | 0.00 | 0.00 | 81 | 1020.1 |
| 20260506161921 | 16 | 151 | 1.6 | 8.0 | 0.00 | 0.00 | 0.00 | 81 | 1020.1 |
| 20260506161819 | 16 | 225 | 1.6 | 8.0 | 0.00 | 0.00 | 0.00 | 81 | 1020.1 |
| 20260506161719 | 16 | 225 | 1.6 | 8.0 | 0.00 | 0.00 | 0.00 | 81 | 1020.1 |
| 20260506161618 | 15 | 224 | 1.6 | 8.0 | 0.00 | 0.00 | 0.00 | 81 | 1020.1 |
| 20260506161517 | 15 | 208 | 1.6 | 8.0 | 0.00 | 0.00 | 0.00 | 81 | 1020.1 |
| 20260506161417 | 15 | 174 | 1.6 | 8.0 | 0.00 | 0.00 | 0.00 | 81 | 1020.2 |
| 20260506161328 | 15 | 174 | 1.6 | 8.0 | 0.00 | 0.00 | 0.00 | 80 | 1020.2 |
| 20260506161315 | 15 | 177 | 1.6 | 8.0 | 0.00 | 0.00 | 0.00 | 80 | 1020.2 |
| 20260506161215 | 15 | 146 | 3.2 | 8.0 | 0.00 | 0.00 | 0.00 | 80 | 1020.2 |
| 20260506161113 | 15 | 226 | 1.6 | 8.0 | 0.00 | 0.00 | 0.00 | 80 | 1020.2 |
| 20260506161011 | 15 | 176 | 1.6 | 8.0 | 0.00 | 0.00 | 0.00 | 81 | 1020.3 |
| 20260506160907 | 15 | 157 | 1.6 | 6.4 | 0.00 | 0.00 | 0.00 | 81 | 1020.2 |
| 20260506160807 | 15 | 238 | 1.6 | 6.4 | 0.00 | 0.00 | 0.00 | 81 | 1020.2 |
| 20260506160707 | 15 | 238 | 1.6 | 6.4 | 0.00 | 0.00 | 0.00 | 81 | 1020.2 |
| 20260506160605 | 15 | 238 | 1.6 | 6.4 | 0.00 | 0.00 | 0.00 | 80 | 1020.2 |
| 20260506160504 | 15 | 238 | 1.6 | 6.4 | 0.00 | 0.00 | 0.00 | 80 | 1020.2 |
| 20260506160359 | 15 | 238 | 1.6 | 6.4 | 0.00 | 0.00 | 0.00 | 81 | 1020.2 |
| 20260506160319 | 15 | 238 | 0.0 | 6.4 | 0.00 | 0.00 | 0.00 | 81 | 1020.2 |
| 20260506160257 | 15 | 216 | 0.0 | 6.4 | 0.00 | 0.00 | 0.00 | 81 | 1020.2 |
| 20260506160157 | 15 | 222 | 0.0 | 4.8 | 0.00 | 0.00 | 0.00 | 81 | 1020.2 |
| 20260506160056 | 15 | 205 | 0.0 | 4.8 | 0.00 | 0.00 | 0.00 | 81 | 1020.2 |
| 20260506155955 | 15 | 205 | 1.6 | 6.4 | 0.00 | 0.00 | 0.00 | 82 | 1020.2 |
| 20260506155826 | 15 | 205 | 1.6 | 6.4 | 0.00 | 0.00 | 0.00 | 83 | 1020.3 |
| 20260506155649 | 15 | 205 | 1.6 | 6.4 | 0.00 | 0.00 | 0.00 | 82 | 1020.3 |
| 20260506155549 | 15 | 205 | 1.6 | 6.4 | 0.00 | 0.00 | 0.00 | 82 | 1020.2 |
| 20260506155449 | 15 | 205 | 1.6 | 6.4 | 0.00 | 0.00 | 0.00 | 81 | 1020.3 |
| 20260506155344 | 15 | 204 | 1.6 | 6.4 | 0.00 | 0.00 | 0.00 | 81 | 1020.3 |
| 20260506155314 | 15 | 203 | 1.6 | 6.4 | 0.00 | 0.00 | 0.00 | 81 | 1020.3 |
| 20260506155243 | 15 | 232 | 1.6 | 6.4 | 0.00 | 0.00 | 0.00 | 81 | 1020.2 |
| 20260506155143 | 15 | 236 | 1.6 | 6.4 | 0.00 | 0.00 | 0.00 | 82 | 1020.3 |
| 20260506155043 | 15 | 232 | 1.6 | 6.4 | 0.00 | 0.00 | 0.00 | 82 | 1020.2 |
| 20260506154944 | 15 | 190 | 1.6 | 4.8 | 0.00 | 0.00 | 0.00 | 82 | 1020.2 |
| 20260506154813 | 15 | 233 | 1.6 | 4.8 | 0.00 | 0.00 | 0.00 | 82 | 1020.2 |
| 20260506154737 | 15 | 224 | 1.6 | 6.4 | 0.00 | 0.00 | 0.00 | 82 | 1020.2 |
| 20260506154635 | 15 | 218 | 1.6 | 6.4 | 0.00 | 0.00 | 0.00 | 82 | 1020.2 |
| 20260506154535 | 15 | 150 | 1.6 | 6.4 | 0.00 | 0.00 | 0.00 | 82 | 1020.2 |
| 20260506154435 | 15 | 232 | 1.6 | 6.4 | 0.00 | 0.00 | 0.00 | 82 | 1020.3 |
| 20260506154312 | 15 | 207 | 1.6 | 6.4 | 0.00 | 0.00 | 0.00 | 82 | 1020.2 |
| 20260506154233 | 15 | 207 | 1.6 | 6.4 | 0.00 | 0.00 | 0.00 | 82 | 1020.3 |
| 20260506154129 | 15 | 208 | 1.6 | 6.4 | 0.00 | 0.00 | 0.00 | 82 | 1020.2 |
| 20260506154029 | 15 | 205 | 1.6 | 6.4 | 0.00 | 0.00 | 0.00 | 82 | 1020.2 |
| 20260506153927 | 15 | 231 | 1.6 | 6.4 | 0.00 | 0.00 | 0.00 | 82 | 1020.2 |
| 20260506153813 | 15 | 231 | 1.6 | 6.4 | 0.00 | 0.00 | 0.00 | 82 | 1020.2 |
| 20260506153721 | 15 | 233 | 1.6 | 6.4 | 0.00 | 0.00 | 0.00 | 82 | 1020.2 |
| 20260506153621 | 15 | 159 | 1.6 | 6.4 | 0.00 | 0.00 | 0.00 | 82 | 1020.2 |
| 20260506153519 | 15 | 217 | 1.6 | 6.4 | 0.00 | 0.00 | 0.00 | 82 | 1020.2 |
| 20260506153420 | 15 | 242 | 1.6 | 6.4 | 0.00 | 0.00 | 0.00 | 82 | 1020.2 |
| 20260506153315 | 15 | 138 | 1.6 | 6.4 | 0.00 | 0.00 | 0.00 | 82 | 1020.2 |
| 20260506153214 | 15 | 134 | 1.6 | 6.4 | 0.00 | 0.00 | 0.00 | 82 | 1020.2 |
| 20260506153113 | 15 | 233 | 1.6 | 6.4 | 0.00 | 0.00 | 0.00 | 82 | 1020.2 |
| 20260506153014 | 15 | 214 | 1.6 | 4.8 | 0.00 | 0.00 | 0.00 | 82 | 1020.2 |
| 20260506152913 | 15 | 222 | 1.6 | 4.8 | 0.00 | 0.00 | 0.00 | 83 | 1020.2 |
| 20260506152815 | 15 | 204 | 1.6 | 6.4 | 0.00 | 0.00 | 0.00 | 83 | 1020.2 |
| 20260506152807 | 15 | 212 | 1.6 | 6.4 | 0.00 | 0.00 | 0.00 | 83 | 1020.2 |
| 20260506152708 | 15 | 214 | 1.6 | 6.4 | 0.00 | 0.00 | 0.00 | 83 | 1020.2 |
| 20260506152605 | 15 | 215 | 1.6 | 6.4 | 0.00 | 0.00 | 0.00 | 83 | 1020.2 |
| 20260506152505 | 15 | 218 | 1.6 | 6.4 | 0.00 | 0.00 | 0.00 | 82 | 1020.2 |
| 20260506152405 | 15 | 219 | 1.6 | 6.4 | 0.00 | 0.00 | 0.00 | 82 | 1020.1 |
| 20260506152312 | 15 | 220 | 1.6 | 6.4 | 0.00 | 0.00 | 0.00 | 83 | 1020.1 |
| 20260506152306 | 15 | 219 | 1.6 | 6.4 | 0.00 | 0.00 | 0.00 | 83 | 1020.1 |
| 20260506152203 | 15 | 160 | 1.6 | 6.4 | 0.00 | 0.00 | 0.00 | 82 | 1020.1 |
| 20260506152102 | 14 | 214 | 1.6 | 8.0 | 0.00 | 0.00 | 0.00 | 83 | 1020.1 |
| 20260506152001 | 14 | 239 | 3.2 | 8.0 | 0.00 | 0.00 | 0.00 | 82 | 1020.2 |
| 20260506151859 | 14 | 239 | 1.6 | 8.0 | 0.00 | 0.00 | 0.00 | 82 | 1020.1 |
| 20260506151809 | 14 | 243 | 1.6 | 8.0 | 0.00 | 0.00 | 0.00 | 83 | 1020.2 |
| 20260506151755 | 14 | 232 | 1.6 | 8.0 | 0.00 | 0.00 | 0.00 | 83 | 1020.2 |
| 20260506151655 | 14 | 232 | 1.6 | 8.0 | 0.00 | 0.00 | 0.00 | 83 | 1020.2 |
| 20260506151555 | 14 | 232 | 1.6 | 8.0 | 0.00 | 0.00 | 0.00 | 83 | 1020.2 |
| 20260506151453 | 14 | 232 | 1.6 | 8.0 | 0.00 | 0.00 | 0.00 | 82 | 1020.2 |
| 20260506151351 | 14 | 233 | 1.6 | 8.0 | 0.00 | 0.00 | 0.00 | 83 | 1020.1 |
| 20260506151310 | 14 | 233 | 1.6 | 8.0 | 0.00 | 0.00 | 0.00 | 83 | 1020.2 |
| 20260506151245 | 14 | 217 | 1.6 | 8.0 | 0.00 | 0.00 | 0.00 | 82 | 1020.2 |
| 20260506151145 | 14 | 232 | 1.6 | 8.0 | 0.00 | 0.00 | 0.00 | 83 | 1020.1 |
| 20260506151045 | 14 | 242 | 1.6 | 6.4 | 0.00 | 0.00 | 0.00 | 83 | 1020.1 |
| 20260506150943 | 14 | 193 | 1.6 | 4.8 | 0.00 | 0.00 | 0.00 | 83 | 1020.1 |
| 20260506150843 | 14 | 193 | 1.6 | 4.8 | 0.00 | 0.00 | 0.00 | 84 | 1020.1 |
| 20260506150810 | 14 | 193 | 1.6 | 4.8 | 0.00 | 0.00 | 0.00 | 83 | 1020.1 |
| 20260506150741 | 14 | 240 | 1.6 | 4.8 | 0.00 | 0.00 | 0.00 | 84 | 1020.1 |
| 20260506150641 | 14 | 187 | 1.6 | 4.8 | 0.00 | 0.00 | 0.00 | 84 | 1020.1 |
| 20260506150543 | 14 | 187 | 1.6 | 4.8 | 0.00 | 0.00 | 0.00 | 83 | 1020.0 |
| 20260506150441 | 14 | 233 | 1.6 | 4.8 | 0.00 | 0.00 | 0.00 | 84 | 1020.1 |
| 20260506150342 | 14 | 233 | 1.6 | 4.8 | 0.00 | 0.00 | 0.00 | 84 | 1020.1 |
| 20260506150307 | 14 | 228 | 1.6 | 4.8 | 0.00 | 0.00 | 0.00 | 84 | 1020.1 |
| 20260506150241 | 14 | 243 | 1.6 | 4.8 | 0.00 | 0.00 | 0.00 | 84 | 1020.0 |
| 20260506150141 | 14 | 207 | 1.6 | 4.8 | 0.00 | 0.00 | 0.00 | 84 | 1020.1 |
| 20260506150042 | 14 | 225 | 1.6 | 6.4 | 0.00 | 0.00 | 0.00 | 84 | 1020.0 |
| 20260506145941 | 14 | 233 | 1.6 | 6.4 | 0.00 | 0.00 | 0.00 | 84 | 1020.0 |
| 20260506145841 | 14 | 256 | 1.6 | 6.4 | 0.00 | 0.00 | 0.00 | 84 | 1020.1 |
| 20260506145820 | 14 | 240 | 1.6 | 6.4 | 0.00 | 0.00 | 0.00 | 84 | 1020.1 |
| 20260506145741 | 14 | 240 | 1.6 | 6.4 | 0.00 | 0.00 | 0.00 | 84 | 1020.1 |
| 20260506145639 | 14 | 240 | 1.6 | 6.4 | 0.00 | 0.00 | 0.00 | 84 | 1020.1 |
| 20260506145543 | 14 | 240 | 1.6 | 6.4 | 0.00 | 0.00 | 0.00 | 84 | 1020.1 |
| 20260506145439 | 14 | 240 | 1.6 | 6.4 | 0.00 | 0.00 | 0.00 | 84 | 1020.1 |
| 20260506145339 | 14 | 229 | 1.6 | 6.4 | 0.00 | 0.00 | 0.00 | 84 | 1020.1 |
| 20260506145306 | 14 | 229 | 1.6 | 6.4 | 0.00 | 0.00 | 0.00 | 84 | 1020.1 |
| 20260506145239 | 14 | 238 | 1.6 | 6.4 | 0.00 | 0.00 | 0.00 | 84 | 1020.1 |
| 20260506145139 | 14 | 150 | 1.6 | 6.4 | 0.00 | 0.00 | 0.00 | 84 | 1020.1 |
| 20260506145035 | 14 | 140 | 1.6 | 6.4 | 0.00 | 0.00 | 0.00 | 84 | 1020.1 |
| 20260506144933 | 14 | 217 | 1.6 | 6.4 | 0.00 | 0.00 | 0.00 | 84 | 1020.1 |
| 20260506144834 | 14 | 192 | 1.6 | 6.4 | 0.00 | 0.00 | 0.00 | 84 | 1020.2 |
| 20260506144807 | 14 | 193 | 1.6 | 6.4 | 0.00 | 0.00 | 0.00 | 84 | 1020.2 |
| 20260506144734 | 14 | 210 | 1.6 | 6.4 | 0.00 | 0.00 | 0.00 | 84 | 1020.1 |
| 20260506144633 | 14 | 165 | 1.6 | 6.4 | 0.00 | 0.00 | 0.00 | 84 | 1020.1 |
| 20260506144533 | 14 | 217 | 1.6 | 6.4 | 0.00 | 0.00 | 0.00 | 84 | 1020.1 |
| 20260506144431 | 14 | 158 | 1.6 | 6.4 | 0.00 | 0.00 | 0.00 | 84 | 1020.1 |
| 20260506144305 | 14 | 158 | 1.6 | 6.4 | 0.00 | 0.00 | 0.00 | 84 | 1020.2 |
| 20260506144233 | 14 | 158 | 1.6 | 6.4 | 0.00 | 0.00 | 0.00 | 84 | 1020.1 |
| 20260506144128 | 14 | 217 | 1.6 | 6.4 | 0.00 | 0.00 | 0.00 | 84 | 1020.1 |
| 20260506144029 | 14 | 218 | 1.6 | 6.4 | 0.00 | 0.00 | 0.00 | 84 | 1020.1 |
| 20260506143927 | 14 | 224 | 1.6 | 4.8 | 0.00 | 0.00 | 0.00 | 84 | 1020.1 |
| 20260506143827 | 14 | 238 | 1.6 | 4.8 | 0.00 | 0.00 | 0.00 | 84 | 1020.0 |
| 20260506143759 | 14 | 237 | 1.6 | 4.8 | 0.00 | 0.00 | 0.00 | 84 | 1020.0 |
| 20260506143727 | 14 | 236 | 1.6 | 4.8 | 0.00 | 0.00 | 0.00 | 84 | 1020.0 |
| 20260506143627 | 14 | 236 | 0.0 | 4.8 | 0.00 | 0.00 | 0.00 | 84 | 1020.0 |
| 20260506143527 | 14 | 225 | 0.0 | 4.8 | 0.00 | 0.00 | 0.00 | 84 | 1020.0 |
| 20260506143428 | 14 | 225 | 0.0 | 4.8 | 0.00 | 0.00 | 0.00 | 84 | 1020.0 |
| 20260506143327 | 14 | 139 | 1.6 | 4.8 | 0.00 | 0.00 | 0.00 | 84 | 1020.0 |
| 20260506143257 | 14 | 140 | 1.6 | 4.8 | 0.00 | 0.00 | 0.00 | 84 | 1020.0 |
| 20260506143225 | 14 | 157 | 1.6 | 4.8 | 0.00 | 0.00 | 0.00 | 84 | 1020.0 |
| 20260506143126 | 14 | 162 | 1.6 | 4.8 | 0.00 | 0.00 | 0.00 | 85 | 1020.0 |
| 20260506143023 | 14 | 160 | 1.6 | 4.8 | 0.00 | 0.00 | 0.00 | 85 | 1020.0 |
| 20260506142921 | 14 | 203 | 1.6 | 4.8 | 0.00 | 0.00 | 0.00 | 85 | 1020.0 |
| 20260506142821 | 14 | 203 | 1.6 | 4.8 | 0.00 | 0.00 | 0.00 | 85 | 1020.0 |
| 20260506142757 | 14 | 165 | 1.6 | 4.8 | 0.00 | 0.00 | 0.00 | 85 | 1020.0 |
| 20260506142722 | 14 | 150 | 1.6 | 4.8 | 0.00 | 0.00 | 0.00 | 85 | 1020.0 |
| 20260506142622 | 13 | 149 | 1.6 | 4.8 | 0.00 | 0.00 | 0.00 | 85 | 1019.9 |
| 20260506142522 | 13 | 150 | 1.6 | 4.8 | 0.00 | 0.00 | 0.00 | 85 | 1020.0 |
| 20260506142421 | 13 | 149 | 1.6 | 4.8 | 0.00 | 0.00 | 0.00 | 85 | 1019.9 |
| 20260506142320 | 13 | 172 | 1.6 | 4.8 | 0.00 | 0.00 | 0.00 | 85 | 1019.9 |
| 20260506142256 | 13 | 149 | 1.6 | 4.8 | 0.00 | 0.00 | 0.00 | 85 | 1019.9 |
| 20260506142219 | 13 | 141 | 1.6 | 4.8 | 0.00 | 0.00 | 0.00 | 85 | 1019.9 |
| 20260506142119 | 13 | 222 | 1.6 | 4.8 | 0.00 | 0.00 | 0.00 | 85 | 1019.9 |
| 20260506142017 | 13 | 210 | 1.6 | 4.8 | 0.00 | 0.00 | 0.00 | 85 | 1019.9 |
| 20260506141915 | 13 | 142 | 1.6 | 4.8 | 0.00 | 0.00 | 0.00 | 85 | 1019.9 |
| 20260506141811 | 13 | 146 | 1.6 | 4.8 | 0.00 | 0.00 | 0.00 | 85 | 1019.9 |
| 20260506141757 | 13 | 145 | 1.6 | 4.8 | 0.00 | 0.00 | 0.00 | 85 | 1019.9 |
| 20260506141711 | 13 | 146 | 1.6 | 4.8 | 0.00 | 0.00 | 0.00 | 85 | 1019.8 |
| 20260506141611 | 13 | 221 | 1.6 | 4.8 | 0.00 | 0.00 | 0.00 | 85 | 1019.8 |
| 20260506141510 | 13 | 158 | 1.6 | 4.8 | 0.00 | 0.00 | 0.00 | 85 | 1019.8 |
| 20260506141407 | 13 | 188 | 1.6 | 4.8 | 0.00 | 0.00 | 0.00 | 85 | 1019.8 |
| 20260506141256 | 13 | 183 | 1.6 | 4.8 | 0.00 | 0.00 | 0.00 | 85 | 1019.8 |
| 20260506141201 | 13 | 207 | 1.6 | 4.8 | 0.00 | 0.00 | 0.00 | 85 | 1019.8 |
| 20260506141102 | 13 | 224 | 1.6 | 4.8 | 0.00 | 0.00 | 0.00 | 85 | 1019.8 |
| 20260506140959 | 13 | 224 | 1.6 | 4.8 | 0.00 | 0.00 | 0.00 | 85 | 1019.8 |
| 20260506140859 | 13 | 224 | 1.6 | 4.8 | 0.00 | 0.00 | 0.00 | 85 | 1019.8 |
| 20260506140755 | 13 | 224 | 1.6 | 4.8 | 0.00 | 0.00 | 0.00 | 85 | 1019.8 |
| 20260506140653 | 13 | 224 | 0.0 | 4.8 | 0.00 | 0.00 | 0.00 | 85 | 1019.7 |
| 20260506140554 | 13 | 219 | 0.0 | 4.8 | 0.00 | 0.00 | 0.00 | 85 | 1019.7 |
| 20260506140454 | 13 | 204 | 0.0 | 3.2 | 0.00 | 0.00 | 0.00 | 85 | 1019.7 |
| 20260506140353 | 13 | 207 | 0.0 | 1.6 | 0.00 | 0.00 | 0.00 | 85 | 1019.7 |
| 20260506140249 | 13 | 210 | 0.0 | 1.6 | 0.00 | 0.00 | 0.00 | 85 | 1019.7 |
| 20260506140148 | 13 | 210 | 0.0 | 1.6 | 0.00 | 0.00 | 0.00 | 85 | 1019.7 |
| 20260506140047 | 13 | 210 | 0.0 | 1.6 | 0.00 | 0.00 | 0.00 | 86 | 1019.6 |
| 20260506135945 | 13 | 210 | 0.0 | 1.6 | 0.00 | 0.00 | 0.00 | 86 | 1019.6 |
| 20260506135845 | 13 | 210 | 0.0 | 1.6 | 0.00 | 0.00 | 0.00 | 85 | 1019.6 |
| 20260506135743 | 13 | 210 | 0.0 | 1.6 | 0.00 | 0.00 | 0.00 | 86 | 1019.6 |
| 20260506135644 | 13 | 210 | 0.0 | 1.6 | 0.00 | 0.00 | 0.00 | 86 | 1019.6 |
| 20260506135543 | 13 | 212 | 0.0 | 1.6 | 0.00 | 0.00 | 0.00 | 86 | 1019.6 |
| 20260506135441 | 13 | 214 | 0.0 | 1.6 | 0.00 | 0.00 | 0.00 | 86 | 1019.5 |
| 20260506135339 | 13 | 214 | 0.0 | 1.6 | 0.00 | 0.00 | 0.00 | 86 | 1019.6 |
| 20260506135236 | 13 | 214 | 0.0 | 1.6 | 0.00 | 0.00 | 0.00 | 86 | 1019.6 |
| 20260506135135 | 13 | 214 | 0.0 | 3.2 | 0.00 | 0.00 | 0.00 | 86 | 1019.5 |
| 20260506135035 | 13 | 214 | 0.0 | 3.2 | 0.00 | 0.00 | 0.00 | 86 | 1019.5 |
| 20260506134933 | 13 | 214 | 0.0 | 3.2 | 0.00 | 0.00 | 0.00 | 86 | 1019.5 |
| 20260506134830 | 13 | 214 | 0.0 | 3.2 | 0.00 | 0.00 | 0.00 | 86 | 1019.5 |
| 20260506134727 | 13 | 214 | 0.0 | 3.2 | 0.00 | 0.00 | 0.00 | 86 | 1019.5 |
| 20260506134625 | 13 | 214 | 0.0 | 3.2 | 0.00 | 0.00 | 0.00 | 86 | 1019.4 |
| 20260506134525 | 13 | 214 | 0.0 | 3.2 | 0.00 | 0.00 | 0.00 | 86 | 1019.5 |
| 20260506134423 | 13 | 214 | 0.0 | 3.2 | 0.00 | 0.00 | 0.00 | 86 | 1019.4 |
| 20260506134324 | 13 | 214 | 1.6 | 3.2 | 0.00 | 0.00 | 0.00 | 86 | 1019.5 |
| 20260506134253 | 13 | 214 | 1.6 | 3.2 | 0.00 | 0.00 | 0.00 | 86 | 1019.5 |
| 20260506134219 | 13 | 214 | 0.0 | 3.2 | 0.00 | 0.00 | 0.00 | 86 | 1019.5 |
| 20260506134119 | 13 | 140 | 0.0 | 3.2 | 0.00 | 0.00 | 0.00 | 86 | 1019.4 |
| 20260506134019 | 13 | 139 | 1.6 | 3.2 | 0.00 | 0.00 | 0.00 | 86 | 1019.4 |
| 20260506133920 | 13 | 140 | 1.6 | 3.2 | 0.00 | 0.00 | 0.00 | 86 | 1019.5 |
| 20260506133819 | 13 | 139 | 0.0 | 3.2 | 0.00 | 0.00 | 0.00 | 86 | 1019.5 |
| 20260506133751 | 13 | 139 | 0.0 | 3.2 | 0.00 | 0.00 | 0.00 | 86 | 1019.5 |
| 20260506133719 | 13 | 110 | 0.0 | 3.2 | 0.00 | 0.00 | 0.00 | 86 | 1019.5 |
| 20260506133620 | 13 | 141 | 0.0 | 1.6 | 0.00 | 0.00 | 0.00 | 86 | 1019.5 |
| 20260506133519 | 13 | 155 | 0.0 | 1.6 | 0.00 | 0.00 | 0.00 | 86 | 1019.4 |
| 20260506133418 | 13 | 155 | 0.0 | 1.6 | 0.00 | 0.00 | 0.00 | 86 | 1019.5 |
| 20260506133317 | 13 | 158 | 0.0 | 1.6 | 0.00 | 0.00 | 0.00 | 86 | 1019.5 |
| 20260506133250 | 13 | 141 | 0.0 | 3.2 | 0.00 | 0.00 | 0.00 | 86 | 1019.5 |
| 20260506133218 | 13 | 141 | 0.0 | 3.2 | 0.00 | 0.00 | 0.00 | 86 | 1019.5 |
| 20260506133118 | 13 | 199 | 0.0 | 3.2 | 0.00 | 0.00 | 0.00 | 86 | 1019.5 |
| 20260506133021 | 13 | 198 | 0.0 | 3.2 | 0.00 | 0.00 | 0.00 | 86 | 1019.5 |
| 20260506132915 | 13 | 188 | 0.0 | 3.2 | 0.00 | 0.00 | 0.00 | 86 | 1019.5 |
| 20260506132815 | 13 | 188 | 0.0 | 3.2 | 0.00 | 0.00 | 0.00 | 86 | 1019.5 |
| 20260506132747 | 13 | 188 | 0.0 | 3.2 | 0.00 | 0.00 | 0.00 | 86 | 1019.5 |
| 20260506132715 | 13 | 192 | 0.0 | 3.2 | 0.00 | 0.00 | 0.00 | 86 | 1019.5 |
| 20260506132615 | 13 | 192 | 0.0 | 3.2 | 0.00 | 0.00 | 0.00 | 86 | 1019.5 |
| 20260506132515 | 13 | 207 | 0.0 | 3.2 | 0.00 | 0.00 | 0.00 | 86 | 1019.5 |
| 20260506132413 | 13 | 207 | 0.0 | 3.2 | 0.00 | 0.00 | 0.00 | 86 | 1019.5 |
| 20260506132313 | 13 | 158 | 0.0 | 3.2 | 0.00 | 0.00 | 0.00 | 86 | 1019.5 |
| 20260506132247 | 13 | 158 | 0.0 | 3.2 | 0.00 | 0.00 | 0.00 | 86 | 1019.5 |
| 20260506132213 | 13 | 158 | 0.0 | 3.2 | 0.00 | 0.00 | 0.00 | 86 | 1019.5 |
| 20260506132113 | 13 | 158 | 0.0 | 3.2 | 0.00 | 0.00 | 0.00 | 86 | 1019.5 |
| 20260506132013 | 13 | 158 | 0.0 | 3.2 | 0.00 | 0.00 | 0.00 | 86 | 1019.5 |
| 20260506131911 | 13 | 158 | 0.0 | 3.2 | 0.00 | 0.00 | 0.00 | 86 | 1019.5 |
| 20260506131812 | 13 | 158 | 1.6 | 3.2 | 0.00 | 0.00 | 0.00 | 86 | 1019.5 |
| 20260506131747 | 13 | 158 | 1.6 | 3.2 | 0.00 | 0.00 | 0.00 | 86 | 1019.5 |
| 20260506131709 | 13 | 158 | 1.6 | 3.2 | 0.00 | 0.00 | 0.00 | 86 | 1019.5 |
| 20260506131607 | 13 | 158 | 1.6 | 3.2 | 0.00 | 0.00 | 0.00 | 86 | 1019.5 |
| 20260506131511 | 13 | 215 | 0.0 | 3.2 | 0.00 | 0.00 | 0.00 | 86 | 1019.4 |
| 20260506131507 | 13 | 158 | 1.6 | 3.2 | 0.00 | 0.00 | 0.00 | 86 | 1019.5 |
| 20260506131406 | 13 | 158 | 1.6 | 3.2 | 0.00 | 0.00 | 0.00 | 86 | 1019.4 |
| 20260506131355 | 13 | 158 | 0.0 | 3.2 | 0.00 | 0.00 | 0.00 | 86 | 1019.4 |
| 20260506131204 | 13 | 133 | 0.0 | 3.2 | 0.00 | 0.00 | 0.00 | 86 | 1019.4 |
| 20260506131101 | 13 | 138 | 0.0 | 1.6 | 0.00 | 0.00 | 0.00 | 86 | 1019.5 |
| 20260506131007 | 13 | 139 | 0.0 | 1.6 | 0.00 | 0.00 | 0.00 | 86 | 1019.4 |
| 20260506130957 | 13 | 139 | 0.0 | 1.6 | 0.00 | 0.00 | 0.00 | 86 | 1019.5 |
| 20260506130902 | 13 | 138 | 0.0 | 1.6 | 0.00 | 0.00 | 0.00 | 86 | 1019.5 |
| 20260506130853 | 13 | 139 | 0.0 | 1.6 | 0.00 | 0.00 | 0.00 | 86 | 1019.5 |
| 20260506130655 | 13 | 139 | 0.0 | 1.6 | 0.00 | 0.00 | 0.00 | 86 | 1019.4 |
| 20260506130553 | 13 | 138 | 0.0 | 1.6 | 0.00 | 0.00 | 0.00 | 86 | 1019.4 |
| 20260506130453 | 13 | 138 | 0.0 | 1.6 | 0.00 | 0.00 | 0.00 | 86 | 1019.4 |
| 20260506130351 | 13 | 138 | 0.0 | 1.6 | 0.00 | 0.00 | 0.00 | 86 | 1019.4 |
| 20260506130244 | 13 | 138 | 0.0 | 1.6 | 0.00 | 0.00 | 0.00 | 86 | 1019.3 |
| 20260506130151 | 13 | 138 | 0.0 | 1.6 | 0.00 | 0.00 | 0.00 | 86 | 1019.4 |
| 20260506130051 | 13 | 139 | 0.0 | 1.6 | 0.00 | 0.00 | 0.00 | 86 | 1019.4 |
| 20260506125951 | 13 | 139 | 0.0 | 1.6 | 0.00 | 0.00 | 0.00 | 86 | 1019.4 |
| 20260506125849 | 13 | 138 | 0.0 | 1.6 | 0.00 | 0.00 | 0.00 | 86 | 1019.4 |
| 20260506125753 | 13 | 139 | 0.0 | 1.6 | 0.00 | 0.00 | 0.00 | 86 | 1019.4 |
| 20260506125742 | 13 | 138 | 0.0 | 1.6 | 0.00 | 0.00 | 0.00 | 86 | 1019.4 |
| 20260506125649 | 13 | 138 | 0.0 | 1.6 | 0.00 | 0.00 | 0.00 | 86 | 1019.4 |
| 20260506125547 | 13 | 138 | 0.0 | 1.6 | 0.00 | 0.00 | 0.00 | 86 | 1019.4 |
| 20260506125447 | 13 | 138 | 0.0 | 1.6 | 0.00 | 0.00 | 0.00 | 86 | 1019.4 |
| 20260506125348 | 13 | 139 | 0.0 | 1.6 | 0.00 | 0.00 | 0.00 | 86 | 1019.4 |
| 20260506125241 | 13 | 139 | 0.0 | 1.6 | 0.00 | 0.00 | 0.00 | 86 | 1019.3 |
| 20260506125148 | 13 | 139 | 0.0 | 3.2 | 0.00 | 0.00 | 0.00 | 86 | 1019.3 |
| 20260506125047 | 13 | 138 | 0.0 | 3.2 | 0.00 | 0.00 | 0.00 | 86 | 1019.3 |
| 20260506125010 | 13 | 138 | 1.6 | 3.2 | 0.00 | 0.00 | 0.00 | 86 | 1019.3 |
| 20260506124948 | 13 | 138 | 0.0 | 3.2 | 0.00 | 0.00 | 0.00 | 86 | 1019.3 |
| 20260506124901 | 13 | 138 | 1.6 | 3.2 | 0.00 | 0.00 | 0.00 | 86 | 1019.3 |
| 20260506124850 | 13 | 138 | 1.6 | 3.2 | 0.00 | 0.00 | 0.00 | 86 | 1019.3 |
| 20260506124641 | 13 | 139 | 1.6 | 3.2 | 0.00 | 0.00 | 0.00 | 86 | 1019.3 |
| 20260506124541 | 13 | 139 | 1.6 | 4.8 | 0.00 | 0.00 | 0.00 | 86 | 1019.3 |
| 20260506124439 | 13 | 138 | 1.6 | 4.8 | 0.00 | 0.00 | 0.00 | 86 | 1019.3 |
| 20260506124340 | 13 | 138 | 1.6 | 4.8 | 0.00 | 0.00 | 0.00 | 86 | 1019.3 |
| 20260506124243 | 13 | 138 | 1.6 | 4.8 | 0.00 | 0.00 | 0.00 | 86 | 1019.2 |
| 20260506124237 | 13 | 139 | 1.6 | 4.8 | 0.00 | 0.00 | 0.00 | 86 | 1019.2 |
| 20260506124133 | 13 | 139 | 1.6 | 4.8 | 0.00 | 0.00 | 0.00 | 86 | 1019.3 |
| 20260506124033 | 13 | 139 | 1.6 | 4.8 | 0.00 | 0.00 | 0.00 | 86 | 1019.2 |
| 20260506123934 | 13 | 126 | 0.0 | 4.8 | 0.00 | 0.00 | 0.00 | 86 | 1019.2 |
| 20260506123833 | 13 | 120 | 0.0 | 4.8 | 0.00 | 0.00 | 0.00 | 86 | 1019.2 |
| 20260506123739 | 13 | 136 | 0.0 | 4.8 | 0.00 | 0.00 | 0.00 | 86 | 1019.2 |
| 20260506123728 | 13 | 141 | 0.0 | 4.8 | 0.00 | 0.00 | 0.00 | 86 | 1019.2 |
| 20260506123627 | 13 | 135 | 0.0 | 4.8 | 0.00 | 0.00 | 0.00 | 86 | 1019.2 |
| 20260506123527 | 13 | 124 | 0.0 | 4.8 | 0.00 | 0.00 | 0.00 | 86 | 1019.2 |
| 20260506123427 | 13 | 124 | 0.0 | 4.8 | 0.00 | 0.00 | 0.00 | 86 | 1019.2 |
| 20260506123325 | 13 | 124 | 1.6 | 4.8 | 0.00 | 0.00 | 0.00 | 86 | 1019.2 |
| 20260506123221 | 13 | 124 | 1.6 | 4.8 | 0.00 | 0.00 | 0.00 | 86 | 1019.2 |
| 20260506123121 | 13 | 124 | 1.6 | 4.8 | 0.00 | 0.00 | 0.00 | 86 | 1019.1 |
| 20260506123021 | 13 | 124 | 1.6 | 4.8 | 0.00 | 0.00 | 0.00 | 86 | 1019.2 |
| 20260506122922 | 13 | 124 | 1.6 | 4.8 | 0.00 | 0.00 | 0.00 | 86 | 1019.1 |
| 20260506122819 | 13 | 124 | 1.6 | 4.8 | 0.00 | 0.00 | 0.00 | 86 | 1019.1 |
| 20260506122715 | 13 | 124 | 1.6 | 4.8 | 0.00 | 0.00 | 0.00 | 86 | 1019.1 |
| 20260506122616 | 13 | 127 | 0.0 | 4.8 | 0.00 | 0.00 | 0.00 | 86 | 1019.1 |
| 20260506122516 | 13 | 136 | 0.0 | 4.8 | 0.00 | 0.00 | 0.00 | 86 | 1019.1 |
| 20260506122454 | 13 | 225 | 0.0 | 3.2 | 0.00 | 0.00 | 0.00 | 86 | 1019.1 |
| 20260506122413 | 13 | 140 | 0.0 | 4.8 | 0.00 | 0.00 | 0.00 | 86 | 1019.1 |
| 20260506122349 | 13 | 218 | 0.0 | 3.2 | 0.00 | 0.00 | 0.00 | 86 | 1019.1 |
| 20260506122208 | 13 | 225 | 0.0 | 3.2 | 0.00 | 0.00 | 0.00 | 86 | 1019.1 |
| 20260506122105 | 13 | 225 | 0.0 | 3.2 | 0.00 | 0.00 | 0.00 | 86 | 1019.1 |
| 20260506122005 | 13 | 225 | 0.0 | 3.2 | 0.00 | 0.00 | 0.00 | 86 | 1019.1 |
| 20260506121903 | 13 | 225 | 0.0 | 3.2 | 0.00 | 0.00 | 0.00 | 86 | 1019.1 |
| 20260506121804 | 13 | 225 | 0.0 | 3.2 | 0.00 | 0.00 | 0.00 | 86 | 1019.1 |
| 20260506121736 | 13 | 225 | 1.6 | 3.2 | 0.00 | 0.00 | 0.00 | 86 | 1019.1 |
| 20260506121659 | 13 | 225 | 1.6 | 3.2 | 0.00 | 0.00 | 0.00 | 86 | 1019.1 |
| 20260506121559 | 13 | 225 | 1.6 | 3.2 | 0.00 | 0.00 | 0.00 | 86 | 1019.0 |
| 20260506121459 | 13 | 160 | 1.6 | 3.2 | 0.00 | 0.00 | 0.00 | 86 | 1019.0 |
| 20260506121359 | 13 | 160 | 1.6 | 3.2 | 0.00 | 0.00 | 0.00 | 86 | 1019.1 |
| 20260506121257 | 13 | 161 | 1.6 | 3.2 | 0.00 | 0.00 | 0.00 | 85 | 1019.1 |
| 20260506121235 | 13 | 160 | 1.6 | 3.2 | 0.00 | 0.00 | 0.00 | 85 | 1019.1 |
| 20260506121158 | 13 | 160 | 1.6 | 3.2 | 0.00 | 0.00 | 0.00 | 85 | 1019.1 |
| 20260506121051 | 13 | 159 | 1.6 | 3.2 | 0.00 | 0.00 | 0.00 | 85 | 1019.1 |
| 20260506120952 | 13 | 127 | 1.6 | 3.2 | 0.00 | 0.00 | 0.00 | 85 | 1019.1 |
| 20260506120851 | 13 | 127 | 1.6 | 3.2 | 0.00 | 0.00 | 0.00 | 85 | 1019.1 |
| 20260506120734 | 13 | 131 | 0.0 | 3.2 | 0.00 | 0.00 | 0.00 | 85 | 1019.1 |
| 20260506120647 | 13 | 134 | 0.0 | 3.2 | 0.00 | 0.00 | 0.00 | 85 | 1019.1 |
| 20260506120547 | 13 | 133 | 0.0 | 3.2 | 0.00 | 0.00 | 0.00 | 85 | 1019.0 |
| 20260506120452 | 13 | 150 | 0.0 | 1.6 | 0.00 | 0.00 | 0.00 | 85 | 1019.0 |
| 20260506120445 | 13 | 133 | 0.0 | 3.2 | 0.00 | 0.00 | 0.00 | 85 | 1019.0 |
| 20260506120352 | 13 | 124 | 0.0 | 3.2 | 0.00 | 0.00 | 0.00 | 85 | 1019.0 |
| 20260506120344 | 13 | 150 | 0.0 | 1.6 | 0.00 | 0.00 | 0.00 | 85 | 1019.0 |
| 20260506120139 | 13 | 150 | 0.0 | 1.6 | 0.00 | 0.00 | 0.00 | 85 | 1018.9 |
| 20260506120039 | 13 | 149 | 0.0 | 1.6 | 0.00 | 0.00 | 0.00 | 85 | 1018.9 |
| 20260506115940 | 13 | 150 | 0.0 | 1.6 | 0.00 | 0.00 | 0.00 | 85 | 1019.0 |
| 20260506115839 | 13 | 150 | 0.0 | 1.6 | 0.00 | 0.00 | 0.00 | 85 | 1019.0 |
| 20260506115732 | 13 | 150 | 0.0 | 1.6 | 0.00 | 0.00 | 0.00 | 85 | 1019.0 |
| 20260506115639 | 13 | 150 | 0.0 | 1.6 | 0.00 | 0.00 | 0.00 | 85 | 1019.0 |
| 20260506115540 | 13 | 149 | 0.0 | 1.6 | 0.00 | 0.00 | 0.00 | 85 | 1019.0 |
| 20260506115439 | 13 | 149 | 0.0 | 1.6 | 0.00 | 0.00 | 0.00 | 85 | 1019.0 |
| 20260506115340 | 13 | 150 | 0.0 | 1.6 | 0.00 | 0.00 | 0.00 | 85 | 1019.1 |
| 20260506115244 | 13 | 150 | 0.0 | 1.6 | 0.00 | 0.00 | 0.00 | 85 | 1019.1 |
| 20260506115234 | 13 | 149 | 0.0 | 1.6 | 0.00 | 0.00 | 0.00 | 85 | 1019.1 |
| 20260506115139 | 13 | 152 | 0.0 | 3.2 | 0.00 | 0.00 | 0.00 | 85 | 1019.1 |
| 20260506115037 | 13 | 129 | 0.0 | 3.2 | 0.00 | 0.00 | 0.00 | 85 | 1019.1 |
| 20260506114937 | 13 | 127 | 0.0 | 3.2 | 0.00 | 0.00 | 0.00 | 85 | 1019.0 |
| 20260506114835 | 13 | 127 | 0.0 | 3.2 | 0.00 | 0.00 | 0.00 | 85 | 1019.0 |
| 20260506114733 | 13 | 127 | 0.0 | 3.2 | 0.00 | 0.00 | 0.00 | 85 | 1019.0 |
| 20260506114633 | 13 | 127 | 0.0 | 3.2 | 0.00 | 0.00 | 0.00 | 85 | 1019.0 |
| 20260506114531 | 13 | 127 | 0.0 | 3.2 | 0.00 | 0.00 | 0.00 | 85 | 1018.9 |
| 20260506114431 | 13 | 120 | 0.0 | 3.2 | 0.00 | 0.00 | 0.00 | 85 | 1019.0 |
| 20260506114331 | 13 | 120 | 0.0 | 3.2 | 0.00 | 0.00 | 0.00 | 85 | 1019.0 |
| 20260506114233 | 13 | 120 | 0.0 | 3.2 | 0.00 | 0.00 | 0.00 | 85 | 1019.0 |
| 20260506114131 | 13 | 228 | 0.0 | 1.6 | 0.00 | 0.00 | 0.00 | 85 | 1019.0 |
| 20260506114032 | 13 | 228 | 0.0 | 3.2 | 0.00 | 0.00 | 0.00 | 85 | 1019.0 |
| 20260506113926 | 13 | 228 | 0.0 | 3.2 | 0.00 | 0.00 | 0.00 | 85 | 1019.0 |
| 20260506113825 | 13 | 228 | 0.0 | 3.2 | 0.00 | 0.00 | 0.00 | 85 | 1018.9 |
| 20260506113725 | 13 | 228 | 0.0 | 3.2 | 0.00 | 0.00 | 0.00 | 85 | 1018.9 |
| 20260506113622 | 13 | 193 | 0.0 | 3.2 | 0.00 | 0.00 | 0.00 | 85 | 1018.9 |
| 20260506113526 | 13 | 193 | 0.0 | 3.2 | 0.00 | 0.00 | 0.00 | 85 | 1018.9 |
| 20260506113423 | 13 | 193 | 0.0 | 3.2 | 0.00 | 0.00 | 0.00 | 85 | 1018.9 |
| 20260506113322 | 13 | 193 | 0.0 | 3.2 | 0.00 | 0.00 | 0.00 | 85 | 1018.9 |
| 20260506113236 | 13 | 192 | 0.0 | 3.2 | 0.00 | 0.00 | 0.00 | 85 | 1018.8 |
| 20260506113221 | 13 | 193 | 0.0 | 3.2 | 0.00 | 0.00 | 0.00 | 85 | 1018.8 |
| 20260506113120 | 13 | 194 | 0.0 | 3.2 | 0.00 | 0.00 | 0.00 | 85 | 1018.9 |
| 20260506113018 | 13 | 183 | 0.0 | 1.6 | 0.00 | 0.00 | 0.00 | 85 | 1018.9 |
| 20260506112913 | 13 | 186 | 0.0 | 1.6 | 0.00 | 0.00 | 0.00 | 85 | 1018.9 |
| 20260506112811 | 13 | 186 | 0.0 | 3.2 | 0.00 | 0.00 | 0.00 | 85 | 1018.8 |
| 20260506112711 | 13 | 186 | 0.0 | 3.2 | 0.00 | 0.00 | 0.00 | 85 | 1018.8 |
| 20260506112611 | 13 | 186 | 0.0 | 3.2 | 0.00 | 0.00 | 0.00 | 85 | 1018.8 |
| 20260506112509 | 13 | 186 | 0.0 | 3.2 | 0.00 | 0.00 | 0.00 | 85 | 1018.8 |
| 20260506112409 | 13 | 186 | 0.0 | 3.2 | 0.00 | 0.00 | 0.00 | 85 | 1018.8 |
| 20260506112308 | 13 | 186 | 0.0 | 3.2 | 0.00 | 0.00 | 0.00 | 85 | 1018.7 |
| 20260506112234 | 13 | 186 | 0.0 | 3.2 | 0.00 | 0.00 | 0.00 | 85 | 1018.7 |
| 20260506112207 | 13 | 187 | 0.0 | 3.2 | 0.00 | 0.00 | 0.00 | 85 | 1018.7 |
| 20260506112106 | 13 | 204 | 0.0 | 3.2 | 0.00 | 0.00 | 0.00 | 85 | 1018.7 |
| 20260506112004 | 13 | 204 | 0.0 | 4.8 | 0.00 | 0.00 | 0.00 | 85 | 1018.7 |
| 20260506111858 | 13 | 204 | 0.0 | 4.8 | 0.00 | 0.00 | 0.00 | 85 | 1018.7 |
| 20260506111732 | 13 | 253 | 1.6 | 4.8 | 0.00 | 0.00 | 0.00 | 85 | 1018.8 |
| 20260506111659 | 13 | 253 | 1.6 | 4.8 | 0.00 | 0.00 | 0.00 | 85 | 1018.8 |
| 20260506111557 | 13 | 253 | 1.6 | 4.8 | 0.00 | 0.00 | 0.00 | 85 | 1018.7 |
| 20260506111456 | 13 | 253 | 1.6 | 4.8 | 0.00 | 0.00 | 0.00 | 85 | 1018.7 |
| 20260506111231 | 13 | 253 | 1.6 | 6.4 | 0.00 | 0.00 | 0.00 | 85 | 1018.7 |
| 20260506111149 | 13 | 253 | 1.6 | 6.4 | 0.00 | 0.00 | 0.00 | 85 | 1018.7 |
| 20260506111048 | 13 | 253 | 1.6 | 6.4 | 0.00 | 0.00 | 0.00 | 85 | 1018.7 |
| 20260506110947 | 13 | 144 | 1.6 | 6.4 | 0.00 | 0.00 | 0.00 | 85 | 1018.6 |
| 20260506110841 | 13 | 162 | 1.6 | 6.4 | 0.00 | 0.00 | 0.00 | 85 | 1018.6 |
| 20260506110743 | 13 | 226 | 1.6 | 6.4 | 0.00 | 0.00 | 0.00 | 85 | 1018.5 |
| 20260506110641 | 13 | 226 | 1.6 | 6.4 | 0.00 | 0.00 | 0.00 | 85 | 1018.5 |
| 20260506110541 | 13 | 233 | 1.6 | 6.4 | 0.00 | 0.00 | 0.00 | 85 | 1018.5 |
| 20260506110441 | 13 | 229 | 1.6 | 6.4 | 0.00 | 0.00 | 0.00 | 85 | 1018.5 |
| 20260506110335 | 13 | 262 | 1.6 | 6.4 | 0.00 | 0.00 | 0.00 | 85 | 1018.5 |
| 20260506110241 | 13 | 168 | 1.6 | 4.8 | 0.00 | 0.00 | 0.00 | 85 | 1018.5 |
| 20260506110231 | 13 | 167 | 1.6 | 4.8 | 0.00 | 0.00 | 0.00 | 85 | 1018.5 |
| 20260506110136 | 13 | 167 | 3.2 | 4.8 | 0.00 | 0.00 | 0.00 | 85 | 1018.5 |
| 20260506110034 | 13 | 167 | 3.2 | 4.8 | 0.00 | 0.00 | 0.00 | 85 | 1018.5 |
| 20260506105933 | 13 | 168 | 3.2 | 4.8 | 0.00 | 0.00 | 0.00 | 85 | 1018.6 |
| 20260506105829 | 13 | 221 | 3.2 | 4.8 | 0.00 | 0.00 | 0.00 | 85 | 1018.6 |
| 20260506105732 | 13 | 160 | 3.2 | 4.8 | 0.00 | 0.00 | 0.00 | 85 | 1018.6 |
| 20260506105629 | 13 | 203 | 3.2 | 4.8 | 0.00 | 0.00 | 0.00 | 85 | 1018.5 |
| 20260506105529 | 13 | 197 | 3.2 | 4.8 | 0.00 | 0.00 | 0.00 | 85 | 1018.5 |
| 20260506105427 | 13 | 207 | 3.2 | 4.8 | 0.00 | 0.00 | 0.00 | 85 | 1018.5 |
| 20260506105323 | 13 | 215 | 1.6 | 4.8 | 0.00 | 0.00 | 0.00 | 85 | 1018.5 |
| 20260506105229 | 13 | 146 | 1.6 | 4.8 | 0.00 | 0.00 | 0.00 | 85 | 1018.5 |
| 20260506105223 | 13 | 142 | 1.6 | 4.8 | 0.00 | 0.00 | 0.00 | 85 | 1018.5 |
| 20260506105124 | 13 | 188 | 1.6 | 4.8 | 0.00 | 0.00 | 0.00 | 84 | 1018.5 |
| 20260506105021 | 13 | 225 | 1.6 | 4.8 | 0.00 | 0.00 | 0.00 | 84 | 1018.5 |
| 20260506104919 | 13 | 215 | 1.6 | 4.8 | 0.00 | 0.00 | 0.00 | 84 | 1018.5 |
| 20260506104815 | 13 | 212 | 1.6 | 4.8 | 0.00 | 0.00 | 0.00 | 85 | 1018.4 |
| 20260506104723 | 13 | 217 | 1.6 | 4.8 | 0.00 | 0.00 | 0.00 | 85 | 1018.4 |
| 20260506104713 | 13 | 193 | 1.6 | 4.8 | 0.00 | 0.00 | 0.00 | 85 | 1018.4 |
| 20260506104615 | 13 | 221 | 1.6 | 3.2 | 0.00 | 0.00 | 0.00 | 85 | 1018.4 |
| 20260506104602 | 13 | 217 | 1.6 | 4.8 | 0.00 | 0.00 | 0.00 | 85 | 1018.4 |
| 20260506104411 | 13 | 217 | 1.6 | 4.8 | 0.00 | 0.00 | 0.00 | 85 | 1018.4 |
| 20260506104336 | 13 | 217 | 1.6 | 4.8 | 0.00 | 0.00 | 0.00 | 85 | 1018.4 |
| 20260506104209 | 13 | 217 | 1.6 | 4.8 | 0.00 | 0.00 | 0.00 | 85 | 1018.4 |
| 20260506104107 | 13 | 227 | 1.6 | 4.8 | 0.00 | 0.00 | 0.00 | 85 | 1018.4 |
| 20260506104008 | 13 | 228 | 1.6 | 4.8 | 0.00 | 0.00 | 0.00 | 85 | 1018.4 |
| 20260506103904 | 13 | 228 | 1.6 | 4.8 | 0.00 | 0.00 | 0.00 | 85 | 1018.4 |
| 20260506103759 | 13 | 228 | 1.6 | 4.8 | 0.00 | 0.00 | 0.00 | 85 | 1018.4 |
| 20260506103730 | 13 | 231 | 1.6 | 4.8 | 0.00 | 0.00 | 0.00 | 84 | 1018.4 |
| 20260506103659 | 13 | 230 | 1.6 | 4.8 | 0.00 | 0.00 | 0.00 | 85 | 1018.4 |
| 20260506103559 | 13 | 199 | 1.6 | 4.8 | 0.00 | 0.00 | 0.00 | 84 | 1018.4 |
| 20260506103458 | 13 | 195 | 0.0 | 4.8 | 0.00 | 0.00 | 0.00 | 85 | 1018.4 |
| 20260506103357 | 13 | 156 | 0.0 | 3.2 | 0.00 | 0.00 | 0.00 | 85 | 1018.4 |
| 20260506103255 | 13 | 136 | 0.0 | 3.2 | 0.00 | 0.00 | 0.00 | 85 | 1018.4 |
| 20260506103230 | 13 | 134 | 0.0 | 3.2 | 0.00 | 0.00 | 0.00 | 85 | 1018.4 |
| 20260506103155 | 13 | 153 | 0.0 | 3.2 | 0.00 | 0.00 | 0.00 | 85 | 1018.4 |
| 20260506103053 | 13 | 134 | 0.0 | 3.2 | 0.00 | 0.00 | 0.00 | 85 | 1018.4 |
| 20260506102953 | 13 | 206 | 0.0 | 3.2 | 0.00 | 0.00 | 0.00 | 85 | 1018.4 |
| 20260506102851 | 13 | 205 | 0.0 | 3.2 | 0.00 | 0.00 | 0.00 | 85 | 1018.4 |
| 20260506102747 | 13 | 206 | 0.0 | 3.2 | 0.00 | 0.00 | 0.00 | 85 | 1018.4 |
| 20260506102730 | 13 | 205 | 1.6 | 3.2 | 0.00 | 0.00 | 0.00 | 85 | 1018.4 |
| 20260506102645 | 13 | 205 | 1.6 | 3.2 | 0.00 | 0.00 | 0.00 | 85 | 1018.4 |
| 20260506102546 | 13 | 207 | 1.6 | 3.2 | 0.00 | 0.00 | 0.00 | 85 | 1018.4 |
| 20260506102445 | 13 | 219 | 1.6 | 3.2 | 0.00 | 0.00 | 0.00 | 84 | 1018.3 |
| 20260506102343 | 13 | 219 | 1.6 | 3.2 | 0.00 | 0.00 | 0.00 | 85 | 1018.3 |
| 20260506102243 | 13 | 200 | 1.6 | 3.2 | 0.00 | 0.00 | 0.00 | 85 | 1018.3 |
| 20260506102231 | 13 | 163 | 1.6 | 3.2 | 0.00 | 0.00 | 0.00 | 85 | 1018.3 |
| 20260506102143 | 13 | 145 | 1.6 | 3.2 | 0.00 | 0.00 | 0.00 | 85 | 1018.3 |
| 20260506102043 | 13 | 229 | 1.6 | 3.2 | 0.00 | 0.00 | 0.00 | 84 | 1018.3 |
| 20260506101943 | 13 | 229 | 1.6 | 3.2 | 0.00 | 0.00 | 0.00 | 85 | 1018.3 |
| 20260506101844 | 13 | 229 | 1.6 | 3.2 | 0.00 | 0.00 | 0.00 | 84 | 1018.3 |
| 20260506101728 | 13 | 229 | 1.6 | 3.2 | 0.00 | 0.00 | 0.00 | 84 | 1018.3 |
| 20260506101641 | 13 | 229 | 1.6 | 3.2 | 0.00 | 0.00 | 0.00 | 84 | 1018.2 |
| 20260506101542 | 13 | 135 | 1.6 | 3.2 | 0.00 | 0.00 | 0.00 | 84 | 1018.2 |
| 20260506101441 | 13 | 135 | 1.6 | 3.2 | 0.00 | 0.00 | 0.00 | 84 | 1018.2 |
| 20260506101341 | 13 | 136 | 1.6 | 3.2 | 0.00 | 0.00 | 0.00 | 84 | 1018.2 |
| 20260506101231 | 13 | 145 | 1.6 | 3.2 | 0.00 | 0.00 | 0.00 | 84 | 1018.2 |
| 20260506101139 | 13 | 146 | 1.6 | 3.2 | 0.00 | 0.00 | 0.00 | 84 | 1018.2 |
| 20260506101039 | 13 | 146 | 1.6 | 3.2 | 0.00 | 0.00 | 0.00 | 84 | 1018.3 |
| 20260506100939 | 13 | 146 | 1.6 | 4.8 | 0.00 | 0.00 | 0.00 | 84 | 1018.2 |
| 20260506100839 | 13 | 181 | 1.6 | 4.8 | 0.00 | 0.00 | 0.00 | 84 | 1018.2 |
| 20260506100739 | 13 | 210 | 1.6 | 4.8 | 0.00 | 0.00 | 0.00 | 84 | 1018.2 |
| 20260506100727 | 13 | 211 | 1.6 | 4.8 | 0.00 | 0.00 | 0.00 | 84 | 1018.2 |
| 20260506100639 | 13 | 207 | 1.6 | 4.8 | 0.00 | 0.00 | 0.00 | 84 | 1018.2 |
| 20260506100551 | 13 | 207 | 1.6 | 4.8 | 0.00 | 0.00 | 0.00 | 84 | 1018.2 |
| 20260506100457 | 13 | 207 | 1.6 | 6.4 | 0.00 | 0.00 | 0.00 | 84 | 1018.2 |
| 20260506100433 | 13 | 207 | 1.6 | 6.4 | 0.00 | 0.00 | 0.00 | 84 | 1018.2 |
| 20260506100354 | 13 | 207 | 1.6 | 6.4 | 0.00 | 0.00 | 0.00 | 84 | 1018.2 |
| 20260506100346 | 13 | 207 | 1.6 | 6.4 | 0.00 | 0.00 | 0.00 | 84 | 1018.2 |
| 20260506100131 | 13 | 200 | 1.6 | 6.4 | 0.00 | 0.00 | 0.00 | 84 | 1018.2 |
| 20260506100032 | 13 | 200 | 1.6 | 6.4 | 0.00 | 0.00 | 0.00 | 84 | 1018.3 |
| 20260506095929 | 13 | 221 | 1.6 | 6.4 | 0.00 | 0.00 | 0.00 | 84 | 1018.2 |
| 20260506095827 | 13 | 212 | 1.6 | 6.4 | 0.00 | 0.00 | 0.00 | 84 | 1018.2 |
| 20260506095729 | 13 | 228 | 1.6 | 6.4 | 0.00 | 0.00 | 0.00 | 84 | 1018.2 |
| 20260506095624 | 13 | 214 | 1.6 | 6.4 | 0.00 | 0.00 | 0.00 | 84 | 1018.2 |
| 20260506095520 | 13 | 214 | 1.6 | 6.4 | 0.00 | 0.00 | 0.00 | 84 | 1018.2 |
| 20260506095450 | 13 | 222 | 0.0 | 3.2 | 0.00 | 0.00 | 0.00 | 84 | 1018.2 |
| 20260506095419 | 13 | 214 | 0.0 | 3.2 | 0.00 | 0.00 | 0.00 | 84 | 1018.2 |
| 20260506095338 | 13 | 222 | 0.0 | 3.2 | 0.00 | 0.00 | 0.00 | 84 | 1018.2 |
| 20260506095219 | 13 | 222 | 0.0 | 3.2 | 0.00 | 0.00 | 0.00 | 84 | 1018.2 |
| 20260506095117 | 13 | 226 | 0.0 | 3.2 | 0.00 | 0.00 | 0.00 | 84 | 1018.2 |
| 20260506095017 | 13 | 226 | 0.0 | 3.2 | 0.00 | 0.00 | 0.00 | 84 | 1018.2 |
| 20260506094941 | 13 | 200 | 0.0 | 3.2 | 0.00 | 0.00 | 0.00 | 84 | 1018.2 |
| 20260506094916 | 13 | 200 | 0.0 | 3.2 | 0.00 | 0.00 | 0.00 | 84 | 1018.2 |
| 20260506094833 | 13 | 200 | 0.0 | 3.2 | 0.00 | 0.00 | 0.00 | 84 | 1018.2 |
| 20260506094713 | 13 | 200 | 0.0 | 3.2 | 0.00 | 0.00 | 0.00 | 84 | 1018.2 |
| 20260506094611 | 13 | 200 | 0.0 | 3.2 | 0.00 | 0.00 | 0.00 | 84 | 1018.2 |
| 20260506094510 | 13 | 200 | 0.0 | 3.2 | 0.00 | 0.00 | 0.00 | 84 | 1018.2 |
| 20260506094409 | 13 | 200 | 0.0 | 3.2 | 0.00 | 0.00 | 0.00 | 84 | 1018.2 |
| 20260506094309 | 13 | 200 | 0.0 | 3.2 | 0.00 | 0.00 | 0.00 | 84 | 1018.2 |
| 20260506094209 | 13 | 200 | 1.6 | 3.2 | 0.00 | 0.00 | 0.00 | 84 | 1018.2 |
| 20260506094109 | 13 | 200 | 1.6 | 3.2 | 0.00 | 0.00 | 0.00 | 84 | 1018.2 |
| 20260506094009 | 13 | 229 | 1.6 | 3.2 | 0.00 | 0.00 | 0.00 | 84 | 1018.2 |
| 20260506093809 | 13 | 141 | 1.6 | 4.8 | 0.00 | 0.00 | 0.00 | 84 | 1018.2 |
| 20260506093721 | 13 | 231 | 1.6 | 4.8 | 0.00 | 0.00 | 0.00 | 84 | 1018.2 |
| 20260506093707 | 13 | 235 | 1.6 | 4.8 | 0.00 | 0.00 | 0.00 | 84 | 1018.2 |
| 20260506093607 | 13 | 235 | 1.6 | 4.8 | 0.00 | 0.00 | 0.00 | 84 | 1018.2 |
| 20260506093507 | 13 | 235 | 1.6 | 4.8 | 0.00 | 0.00 | 0.00 | 84 | 1018.2 |
| 20260506093405 | 13 | 235 | 1.6 | 4.8 | 0.00 | 0.00 | 0.00 | 84 | 1018.3 |
| 20260506093306 | 13 | 235 | 1.6 | 4.8 | 0.00 | 0.00 | 0.00 | 84 | 1018.2 |
| 20260506093222 | 13 | 235 | 1.6 | 4.8 | 0.00 | 0.00 | 0.00 | 84 | 1018.3 |
| 20260506093204 | 13 | 240 | 1.6 | 4.8 | 0.00 | 0.00 | 0.00 | 84 | 1018.3 |
| 20260506093103 | 13 | 240 | 1.6 | 4.8 | 0.00 | 0.00 | 0.00 | 84 | 1018.2 |
| 20260506093001 | 13 | 242 | 1.6 | 6.4 | 0.00 | 0.00 | 0.00 | 84 | 1018.2 |
| 20260506092859 | 13 | 155 | 1.6 | 6.4 | 0.00 | 0.00 | 0.00 | 84 | 1018.2 |
| 20260506092759 | 13 | 232 | 1.6 | 6.4 | 0.00 | 0.00 | 0.00 | 84 | 1018.2 |
| 20260506092721 | 13 | 233 | 1.6 | 6.4 | 0.00 | 0.00 | 0.00 | 84 | 1018.2 |
| 20260506092700 | 13 | 233 | 1.6 | 6.4 | 0.00 | 0.00 | 0.00 | 84 | 1018.2 |
| 20260506092559 | 13 | 233 | 1.6 | 6.4 | 0.00 | 0.00 | 0.00 | 84 | 1018.2 |
| 20260506092459 | 13 | 232 | 1.6 | 6.4 | 0.00 | 0.00 | 0.00 | 84 | 1018.2 |
| 20260506092359 | 13 | 232 | 1.6 | 6.4 | 0.00 | 0.00 | 0.00 | 84 | 1018.2 |
| 20260506092253 | 13 | 233 | 1.6 | 6.4 | 0.00 | 0.00 | 0.00 | 84 | 1018.2 |
| 20260506092215 | 13 | 157 | 1.6 | 6.4 | 0.00 | 0.00 | 0.00 | 84 | 1018.1 |
| 20260506092153 | 13 | 156 | 1.6 | 6.4 | 0.00 | 0.00 | 0.00 | 84 | 1018.1 |
| 20260506092053 | 13 | 156 | 1.6 | 6.4 | 0.00 | 0.00 | 0.00 | 84 | 1018.2 |
| 20260506091951 | 13 | 233 | 1.6 | 6.4 | 0.00 | 0.00 | 0.00 | 84 | 1018.2 |
| 20260506091851 | 13 | 233 | 1.6 | 6.4 | 0.00 | 0.00 | 0.00 | 84 | 1018.2 |
| 20260506091747 | 13 | 232 | 1.6 | 6.4 | 0.00 | 0.00 | 0.00 | 84 | 1018.1 |
| 20260506091712 | 13 | 232 | 1.6 | 6.4 | 0.00 | 0.00 | 0.00 | 84 | 1018.2 |
| 20260506091647 | 13 | 215 | 1.6 | 6.4 | 0.00 | 0.00 | 0.00 | 84 | 1018.2 |
| 20260506091547 | 13 | 215 | 1.6 | 6.4 | 0.00 | 0.00 | 0.00 | 84 | 1018.1 |
| 20260506091447 | 13 | 215 | 1.6 | 6.4 | 0.00 | 0.00 | 0.00 | 84 | 1018.2 |
| 20260506091345 | 13 | 215 | 1.6 | 6.4 | 0.00 | 0.00 | 0.00 | 84 | 1018.1 |
| 20260506091242 | 13 | 193 | 1.6 | 6.4 | 0.00 | 0.00 | 0.00 | 84 | 1018.2 |
| 20260506091213 | 13 | 243 | 1.6 | 6.4 | 0.00 | 0.00 | 0.00 | 84 | 1018.2 |
| 20260506091140 | 13 | 226 | 1.6 | 6.4 | 0.00 | 0.00 | 0.00 | 84 | 1018.2 |
| 20260506091039 | 13 | 221 | 1.6 | 4.8 | 0.00 | 0.00 | 0.00 | 84 | 1018.2 |
| 20260506090937 | 13 | 147 | 1.6 | 3.2 | 0.00 | 0.00 | 0.00 | 84 | 1018.2 |
| 20260506090838 | 13 | 163 | 1.6 | 3.2 | 0.00 | 0.00 | 0.00 | 84 | 1018.2 |
| 20260506090733 | 13 | 222 | 1.6 | 3.2 | 0.00 | 0.00 | 0.00 | 84 | 1018.2 |
| 20260506090710 | 13 | 221 | 1.6 | 3.2 | 0.00 | 0.00 | 0.00 | 83 | 1018.2 |
| 20260506090634 | 13 | 222 | 1.6 | 3.2 | 0.00 | 0.00 | 0.00 | 83 | 1018.1 |
| 20260506090533 | 14 | 221 | 1.6 | 4.8 | 0.00 | 0.00 | 0.00 | 84 | 1018.2 |
| 20260506090433 | 14 | 212 | 1.6 | 4.8 | 0.00 | 0.00 | 0.00 | 84 | 1018.1 |
| 20260506090331 | 14 | 212 | 1.6 | 4.8 | 0.00 | 0.00 | 0.00 | 83 | 1018.1 |
| 20260506090208 | 14 | 204 | 1.6 | 4.8 | 0.00 | 0.00 | 0.00 | 83 | 1018.1 |
| 20260506090127 | 14 | 205 | 1.6 | 4.8 | 0.00 | 0.00 | 0.00 | 83 | 1018.2 |
| 20260506090028 | 14 | 198 | 1.6 | 4.8 | 0.00 | 0.00 | 0.00 | 83 | 1018.2 |
| 20260506085925 | 14 | 233 | 1.6 | 4.8 | 0.00 | 0.00 | 0.00 | 83 | 1018.2 |
| 20260506085823 | 14 | 217 | 1.6 | 4.8 | 0.00 | 0.00 | 0.00 | 83 | 1018.2 |
| 20260506085710 | 14 | 217 | 1.6 | 4.8 | 0.00 | 0.00 | 0.00 | 83 | 1018.2 |
| 20260506085617 | 14 | 194 | 1.6 | 4.8 | 0.00 | 0.00 | 0.00 | 83 | 1018.2 |
| 20260506085517 | 14 | 194 | 1.6 | 4.8 | 0.00 | 0.00 | 0.00 | 83 | 1018.3 |
| 20260506085415 | 14 | 225 | 1.6 | 6.4 | 0.00 | 0.00 | 0.00 | 83 | 1018.2 |
| 20260506085315 | 14 | 226 | 1.6 | 6.4 | 0.00 | 0.00 | 0.00 | 83 | 1018.2 |
| 20260506085209 | 14 | 226 | 1.6 | 6.4 | 0.00 | 0.00 | 0.00 | 83 | 1018.2 |
| 20260506085113 | 14 | 226 | 1.6 | 6.4 | 0.00 | 0.00 | 0.00 | 83 | 1018.2 |
| 20260506085014 | 14 | 211 | 1.6 | 6.4 | 0.00 | 0.00 | 0.00 | 83 | 1018.2 |
| 20260506084912 | 14 | 205 | 1.6 | 6.4 | 0.00 | 0.00 | 0.00 | 83 | 1018.2 |
| 20260506084811 | 14 | 228 | 1.6 | 6.4 | 0.00 | 0.00 | 0.00 | 83 | 1018.2 |
| 20260506084712 | 14 | 229 | 1.6 | 6.4 | 0.00 | 0.00 | 0.00 | 83 | 1018.2 |
| 20260506084611 | 14 | 228 | 1.6 | 6.4 | 0.00 | 0.00 | 0.00 | 83 | 1018.2 |
| 20260506084511 | 14 | 228 | 1.6 | 6.4 | 0.00 | 0.00 | 0.00 | 83 | 1018.2 |
| 20260506084411 | 14 | 231 | 1.6 | 6.4 | 0.00 | 0.00 | 0.00 | 83 | 1018.2 |
| 20260506084312 | 14 | 131 | 1.6 | 6.4 | 0.00 | 0.00 | 0.00 | 83 | 1018.2 |
| 20260506084214 | 14 | 240 | 1.6 | 6.4 | 0.00 | 0.00 | 0.00 | 83 | 1018.2 |
| 20260506084111 | 14 | 239 | 1.6 | 6.4 | 0.00 | 0.00 | 0.00 | 83 | 1018.2 |
| 20260506084011 | 14 | 239 | 1.6 | 6.4 | 0.00 | 0.00 | 0.00 | 83 | 1018.2 |
| 20260506083934 | 14 | 215 | 3.2 | 9.7 | 0.00 | 0.00 | 0.00 | 83 | 1018.2 |
| 20260506083911 | 14 | 232 | 1.6 | 6.4 | 0.00 | 0.00 | 0.00 | 83 | 1018.2 |
| 20260506083828 | 14 | 198 | 3.2 | 9.7 | 0.00 | 0.00 | 0.00 | 83 | 1018.2 |
| 20260506083818 | 14 | 215 | 3.2 | 9.7 | 0.00 | 0.00 | 0.00 | 83 | 1018.2 |
| 20260506083611 | 14 | 236 | 3.2 | 9.7 | 0.00 | 0.00 | 0.00 | 83 | 1018.2 |
| 20260506083511 | 14 | 229 | 3.2 | 9.7 | 0.00 | 0.00 | 0.00 | 83 | 1018.2 |
| 20260506083409 | 14 | 153 | 3.2 | 9.7 | 0.00 | 0.00 | 0.00 | 83 | 1018.2 |
| 20260506083309 | 14 | 226 | 3.2 | 9.7 | 0.00 | 0.00 | 0.00 | 83 | 1018.2 |
| 20260506083214 | 14 | 227 | 4.8 | 11.3 | 0.00 | 0.00 | 0.00 | 83 | 1018.2 |
| 20260506083208 | 14 | 226 | 4.8 | 11.3 | 0.00 | 0.00 | 0.00 | 83 | 1018.2 |
| 20260506083106 | 14 | 226 | 4.8 | 11.3 | 0.00 | 0.00 | 0.00 | 83 | 1018.2 |
| 20260506083002 | 14 | 217 | 4.8 | 11.3 | 0.00 | 0.00 | 0.00 | 83 | 1018.2 |
| 20260506082859 | 14 | 243 | 4.8 | 11.3 | 0.00 | 0.00 | 0.00 | 83 | 1018.2 |
| 20260506082759 | 14 | 184 | 4.8 | 12.9 | 0.00 | 0.00 | 0.00 | 83 | 1018.2 |
| 20260506082709 | 14 | 228 | 4.8 | 12.9 | 0.00 | 0.00 | 0.00 | 83 | 1018.3 |
| 20260506082659 | 14 | 229 | 4.8 | 12.9 | 0.00 | 0.00 | 0.00 | 83 | 1018.3 |
| 20260506082557 | 14 | 215 | 4.8 | 12.9 | 0.00 | 0.00 | 0.00 | 83 | 1018.2 |
| 20260506082451 | 14 | 211 | 4.8 | 12.9 | 0.00 | 0.00 | 0.00 | 83 | 1018.3 |
| 20260506082351 | 14 | 245 | 4.8 | 12.9 | 0.00 | 0.00 | 0.00 | 83 | 1018.3 |
| 20260506082251 | 14 | 219 | 4.8 | 12.9 | 0.00 | 0.00 | 0.00 | 83 | 1018.2 |
| 20260506082209 | 14 | 250 | 4.8 | 12.9 | 0.00 | 0.00 | 0.00 | 83 | 1018.3 |
| 20260506082151 | 14 | 243 | 4.8 | 12.9 | 0.00 | 0.00 | 0.00 | 83 | 1018.3 |
| 20260506082051 | 14 | 233 | 4.8 | 12.9 | 0.00 | 0.00 | 0.00 | 83 | 1018.3 |
| 20260506081845 | 14 | 250 | 3.2 | 9.7 | 0.00 | 0.00 | 0.00 | 83 | 1018.3 |
| 20260506081746 | 14 | 221 | 3.2 | 9.7 | 0.00 | 0.00 | 0.00 | 83 | 1018.3 |
| 20260506081710 | 14 | 248 | 3.2 | 9.7 | 0.00 | 0.00 | 0.00 | 83 | 1018.2 |
| 20260506081645 | 14 | 238 | 3.2 | 9.7 | 0.00 | 0.00 | 0.00 | 83 | 1018.3 |
| 20260506081545 | 14 | 238 | 3.2 | 9.7 | 0.00 | 0.00 | 0.00 | 83 | 1018.3 |
| 20260506081445 | 14 | 236 | 3.2 | 9.7 | 0.00 | 0.00 | 0.00 | 83 | 1018.3 |
| 20260506081346 | 14 | 242 | 3.2 | 9.7 | 0.00 | 0.00 | 0.00 | 83 | 1018.2 |
| 20260506081245 | 14 | 242 | 3.2 | 9.7 | 0.00 | 0.00 | 0.00 | 83 | 1018.2 |
| 20260506081209 | 14 | 211 | 3.2 | 9.7 | 0.00 | 0.00 | 0.00 | 83 | 1018.2 |
| 20260506081143 | 14 | 211 | 3.2 | 9.7 | 0.00 | 0.00 | 0.00 | 83 | 1018.2 |
| 20260506081041 | 14 | 219 | 3.2 | 9.7 | 0.00 | 0.00 | 0.00 | 83 | 1018.2 |
| 20260506080942 | 14 | 212 | 3.2 | 9.7 | 0.00 | 0.00 | 0.00 | 83 | 1018.2 |
| 20260506080841 | 14 | 233 | 3.2 | 9.7 | 0.00 | 0.00 | 0.00 | 83 | 1018.2 |
| 20260506080741 | 14 | 248 | 3.2 | 9.7 | 0.00 | 0.00 | 0.00 | 83 | 1018.2 |
| 20260506080722 | 14 | 235 | 3.2 | 9.7 | 0.00 | 0.00 | 0.00 | 83 | 1018.2 |
| 20260506080641 | 14 | 289 | 3.2 | 9.7 | 0.00 | 0.00 | 0.00 | 83 | 1018.2 |
| 20260506080541 | 14 | 240 | 3.2 | 9.7 | 0.00 | 0.00 | 0.00 | 83 | 1018.2 |
| 20260506080441 | 14 | 225 | 3.2 | 9.7 | 0.00 | 0.00 | 0.00 | 83 | 1018.2 |
| 20260506080339 | 14 | 174 | 3.2 | 9.7 | 0.00 | 0.00 | 0.00 | 83 | 1018.2 |
| 20260506080240 | 14 | 211 | 3.2 | 9.7 | 0.00 | 0.00 | 0.00 | 83 | 1018.2 |
| 20260506080204 | 14 | 168 | 3.2 | 9.7 | 0.00 | 0.00 | 0.00 | 83 | 1018.2 |
| 20260506080140 | 14 | 141 | 3.2 | 9.7 | 0.00 | 0.00 | 0.00 | 83 | 1018.2 |
| 20260506073523 | 14 | 224 | 3.2 | 12.9 | 0.00 | 0.05 | 0.00 | 83 | 1018.0 |
| 20260506073423 | 14 | 246 | 1.6 | 12.9 | 0.00 | 0.05 | 0.00 | 83 | 1018.0 |
| 20260506073323 | 14 | 215 | 1.6 | 9.7 | 0.00 | 0.05 | 0.00 | 83 | 1018.0 |
| 20260506073203 | 14 | 233 | 3.2 | 9.7 | 0.00 | 0.05 | 0.00 | 83 | 1018.0 |
| 20260506073124 | 14 | 233 | 1.6 | 9.7 | 0.00 | 0.05 | 0.00 | 83 | 1017.9 |
| 20260506073023 | 14 | 221 | 3.2 | 9.7 | 0.00 | 0.05 | 0.00 | 83 | 1018.0 |
| 20260506072923 | 14 | 242 | 3.2 | 9.7 | 0.00 | 0.05 | 0.00 | 83 | 1018.0 |
| 20260506072823 | 14 | 239 | 3.2 | 9.7 | 0.00 | 0.05 | 0.00 | 83 | 1017.9 |
| 20260506072722 | 14 | 219 | 3.2 | 9.7 | 0.00 | 0.05 | 0.00 | 83 | 1018.0 |
| 20260506072703 | 14 | 207 | 3.2 | 9.7 | 0.00 | 0.05 | 0.00 | 83 | 1018.0 |
| 20260506072623 | 14 | 236 | 3.2 | 9.7 | 0.00 | 0.05 | 0.00 | 83 | 1018.0 |
| 20260506072523 | 14 | 236 | 3.2 | 9.7 | 0.00 | 0.05 | 0.00 | 83 | 1017.9 |
| 20260506072423 | 14 | 250 | 3.2 | 9.7 | 0.00 | 0.05 | 0.00 | 83 | 1017.9 |
| 20260506072323 | 14 | 233 | 3.2 | 9.7 | 0.00 | 0.05 | 0.00 | 83 | 1017.9 |
| 20260506072227 | 14 | 233 | 3.2 | 9.7 | 0.00 | 0.05 | 0.00 | 83 | 1017.9 |
| 20260506072216 | 14 | 235 | 3.2 | 9.7 | 0.00 | 0.05 | 0.00 | 83 | 1017.9 |
| 20260506072124 | 14 | 233 | 3.2 | 9.7 | 0.00 | 0.05 | 0.00 | 83 | 1017.9 |
| 20260506072023 | 14 | 188 | 3.2 | 9.7 | 0.00 | 0.08 | 0.00 | 83 | 1017.9 |
| 20260506071932 | 14 | 221 | 1.6 | 9.7 | 0.00 | 0.08 | 0.00 | 83 | 1017.9 |
| 20260506071923 | 14 | 232 | 3.2 | 9.7 | 0.00 | 0.08 | 0.00 | 83 | 1017.9 |
| 20260506071823 | 14 | 243 | 3.2 | 9.7 | 0.00 | 0.08 | 0.00 | 83 | 1017.8 |
| 20260506071814 | 14 | 224 | 1.6 | 9.7 | 0.00 | 0.08 | 0.00 | 83 | 1017.9 |
| 20260506071622 | 14 | 221 | 1.6 | 9.7 | 0.00 | 0.08 | 0.00 | 83 | 1017.9 |
| 20260506071520 | 14 | 240 | 1.6 | 9.7 | 0.00 | 0.08 | 0.00 | 83 | 1017.8 |
| 20260506071417 | 14 | 238 | 1.6 | 9.7 | 0.00 | 0.08 | 0.00 | 83 | 1017.9 |
| 20260506071315 | 14 | 214 | 1.6 | 9.7 | 0.00 | 0.08 | 0.00 | 83 | 1017.9 |
| 20260506071215 | 14 | 235 | 1.6 | 9.7 | 0.00 | 0.08 | 0.00 | 83 | 1017.9 |
| 20260506071201 | 14 | 221 | 1.6 | 9.7 | 0.00 | 0.08 | 0.00 | 83 | 1017.9 |
| 20260506071115 | 14 | 239 | 1.6 | 9.7 | 0.00 | 0.08 | 0.00 | 83 | 1017.9 |
| 20260506071015 | 14 | 231 | 1.6 | 9.7 | 0.00 | 0.08 | 0.00 | 83 | 1017.9 |
| 20260506070915 | 14 | 240 | 1.6 | 9.7 | 0.00 | 0.08 | 0.00 | 83 | 1017.9 |
| 20260506070813 | 14 | 240 | 1.6 | 9.7 | 0.00 | 0.08 | 0.00 | 83 | 1017.9 |
| 20260506070711 | 14 | 240 | 1.6 | 9.7 | 0.00 | 0.08 | 0.00 | 83 | 1017.8 |
| 20260506070701 | 14 | 240 | 1.6 | 9.7 | 0.00 | 0.08 | 0.00 | 83 | 1017.8 |
| 20260506070611 | 14 | 240 | 1.6 | 9.7 | 0.00 | 0.08 | 0.00 | 83 | 1017.8 |
| 20260506070510 | 14 | 240 | 1.6 | 9.7 | 0.00 | 0.08 | 0.00 | 83 | 1017.8 |
| 20260506070409 | 14 | 240 | 1.6 | 9.7 | 0.00 | 0.08 | 0.00 | 83 | 1017.8 |
| 20260506070308 | 14 | 236 | 1.6 | 9.7 | 0.00 | 0.10 | 0.00 | 83 | 1017.7 |
| 20260506070213 | 14 | 243 | 1.6 | 4.8 | 0.00 | 0.10 | 0.00 | 83 | 1017.7 |
| 20260506070203 | 14 | 246 | 1.6 | 4.8 | 0.00 | 0.10 | 0.00 | 83 | 1017.7 |
| 20260506070107 | 14 | 245 | 1.6 | 4.8 | 0.00 | 0.10 | 0.00 | 83 | 1017.7 |
| 20260506062428 | 14 | 253 | 1.6 | 11.3 | 0.00 | 0.18 | 0.10 | 83 | 1017.3 |
| 20260506062327 | 14 | 221 | 1.6 | 11.3 | 0.00 | 0.20 | 0.10 | 83 | 1017.3 |
| 20260506062229 | 14 | 266 | 1.6 | 11.3 | 0.00 | 0.20 | 0.10 | 83 | 1017.3 |
| 20260506062127 | 14 | 266 | 1.6 | 11.3 | 0.00 | 0.20 | 0.10 | 83 | 1017.3 |
| 20260506062021 | 14 | 227 | 1.6 | 11.3 | 0.00 | 0.20 | 0.10 | 83 | 1017.3 |
| 20260506061920 | 14 | 264 | 1.6 | 11.3 | 0.00 | 0.20 | 0.10 | 83 | 1017.3 |
| 20260506061819 | 14 | 211 | 1.6 | 9.7 | 0.00 | 0.20 | 0.10 | 84 | 1017.2 |
| 20260506061720 | 14 | 232 | 1.6 | 8.0 | 0.00 | 0.20 | 0.10 | 84 | 1017.3 |
| 20260506061621 | 14 | 232 | 1.6 | 9.7 | 0.00 | 0.20 | 0.10 | 84 | 1017.3 |
| 20260506061515 | 14 | 242 | 1.6 | 9.7 | 0.00 | 0.20 | 0.10 | 84 | 1017.2 |
| 20260506061415 | 14 | 242 | 1.6 | 9.7 | 0.00 | 0.20 | 0.10 | 84 | 1017.2 |
| 20260506061334 | 14 | 242 | 1.6 | 9.7 | 0.00 | 0.20 | 0.10 | 84 | 1017.1 |
| 20260506061315 | 14 | 242 | 1.6 | 9.7 | 0.00 | 0.20 | 0.10 | 84 | 1017.2 |
| 20260506061230 | 14 | 242 | 1.6 | 9.7 | 0.00 | 0.20 | 0.10 | 84 | 1017.2 |
| 20260506061220 | 14 | 242 | 1.6 | 9.7 | 0.00 | 0.20 | 0.10 | 84 | 1017.1 |
| 20260506061014 | 14 | 241 | 1.6 | 9.7 | 0.00 | 0.23 | 0.10 | 84 | 1017.1 |
| 20260506060912 | 14 | 243 | 1.6 | 9.7 | 0.00 | 0.23 | 0.10 | 84 | 1017.1 |
| 20260506060828 | 14 | 276 | 1.6 | 6.4 | 0.00 | 0.23 | 0.10 | 84 | 1017.2 |
| 20260506060811 | 14 | 242 | 1.6 | 9.7 | 0.00 | 0.23 | 0.10 | 84 | 1017.1 |
| 20260506060724 | 14 | 214 | 1.6 | 9.7 | 0.00 | 0.23 | 0.10 | 84 | 1017.1 |
| 20260506060714 | 14 | 276 | 1.6 | 6.4 | 0.00 | 0.23 | 0.10 | 84 | 1017.2 |
| 20260506060507 | 14 | 245 | 1.6 | 6.4 | 0.00 | 0.23 | 0.10 | 84 | 1017.2 |
| 20260506060405 | 14 | 225 | 1.6 | 6.4 | 0.00 | 0.23 | 0.10 | 84 | 1017.2 |
| 20260506060304 | 14 | 225 | 1.6 | 6.4 | 0.00 | 0.23 | 0.10 | 84 | 1017.2 |
| 20260506060204 | 14 | 219 | 1.6 | 6.4 | 0.00 | 0.25 | 0.10 | 84 | 1017.2 |
| 20260506060111 | 14 | 219 | 1.6 | 6.4 | 0.00 | 0.25 | 0.10 | 84 | 1017.2 |
| 20260506051402 | 15 | 233 | 1.6 | 8.0 | 0.00 | 0.33 | 0.10 | 83 | 1016.8 |
| 20260506051302 | 15 | 233 | 1.6 | 8.0 | 0.00 | 0.33 | 0.10 | 83 | 1016.8 |
| 20260506051201 | 15 | 236 | 1.6 | 8.0 | 0.00 | 0.33 | 0.10 | 83 | 1016.8 |
| 20260506051102 | 15 | 248 | 1.6 | 8.0 | 0.00 | 0.33 | 0.10 | 83 | 1016.8 |
| 20260506051004 | 15 | 224 | 1.6 | 8.0 | 0.00 | 0.33 | 0.10 | 83 | 1016.8 |
| 20260506050901 | 15 | 226 | 1.6 | 8.0 | 0.00 | 0.33 | 0.10 | 83 | 1016.7 |
| 20260506050759 | 15 | 236 | 1.6 | 8.0 | 0.00 | 0.33 | 0.10 | 83 | 1016.7 |
| 20260506050700 | 15 | 148 | 1.6 | 8.0 | 0.00 | 0.33 | 0.10 | 83 | 1016.7 |
| 20260506050558 | 15 | 148 | 3.2 | 8.0 | 0.00 | 0.33 | 0.10 | 82 | 1016.7 |
| 20260506050457 | 15 | 240 | 1.6 | 8.0 | 0.00 | 0.33 | 0.10 | 82 | 1016.7 |
| 20260506050350 | 15 | 240 | 1.6 | 8.0 | 0.00 | 0.33 | 0.10 | 82 | 1016.6 |
| 20260506050250 | 15 | 311 | 1.6 | 8.0 | 0.00 | 0.33 | 0.10 | 82 | 1016.7 |
| 20260506050149 | 15 | 242 | 1.6 | 8.0 | 0.00 | 0.33 | 0.10 | 82 | 1016.6 |
| 20260506045040 | 15 | 235 | 1.6 | 6.4 | 0.00 | 0.36 | 0.10 | 81 | 1016.6 |
| 20260506044940 | 15 | 240 | 1.6 | 6.4 | 0.00 | 0.36 | 0.10 | 81 | 1016.6 |
| 20260506044836 | 15 | 240 | 1.6 | 6.4 | 0.00 | 0.36 | 0.10 | 81 | 1016.5 |
| 20260506044736 | 15 | 239 | 1.6 | 8.0 | 0.00 | 0.36 | 0.10 | 81 | 1016.5 |
| 20260506044634 | 15 | 141 | 3.2 | 12.9 | 0.00 | 0.36 | 0.10 | 81 | 1016.5 |
| 20260506044533 | 15 | 232 | 3.2 | 12.9 | 0.00 | 0.36 | 0.10 | 81 | 1016.5 |
| 20260506044433 | 15 | 262 | 3.2 | 12.9 | 0.00 | 0.36 | 0.10 | 81 | 1016.4 |
| 20260506044327 | 15 | 253 | 3.2 | 12.9 | 0.00 | 0.36 | 0.10 | 80 | 1016.4 |
| 20260506044228 | 15 | 215 | 4.8 | 14.5 | 0.00 | 0.36 | 0.10 | 80 | 1016.4 |
| 20260506044127 | 15 | 216 | 4.8 | 14.5 | 0.00 | 0.36 | 0.10 | 80 | 1016.4 |
| 20260506044028 | 15 | 214 | 4.8 | 14.5 | 0.00 | 0.38 | 0.10 | 80 | 1016.4 |
| 20260506043928 | 15 | 248 | 4.8 | 14.5 | 0.00 | 0.38 | 0.10 | 80 | 1016.4 |
| 20260506043819 | 15 | 239 | 6.4 | 14.5 | 0.00 | 0.38 | 0.10 | 80 | 1016.3 |
| 20260506043719 | 15 | 256 | 6.4 | 14.5 | 0.00 | 0.38 | 0.10 | 80 | 1016.3 |
| 20260506043620 | 15 | 238 | 6.4 | 14.5 | 0.00 | 0.38 | 0.10 | 80 | 1016.3 |
| 20260506043520 | 15 | 248 | 6.4 | 14.5 | 0.00 | 0.38 | 0.10 | 80 | 1016.3 |
| 20260506043421 | 15 | 266 | 4.8 | 14.5 | 0.00 | 0.38 | 0.10 | 80 | 1016.2 |
| 20260506043313 | 15 | 250 | 4.8 | 14.5 | 0.00 | 0.38 | 0.10 | 80 | 1016.2 |
| 20260506043214 | 15 | 212 | 4.8 | 12.9 | 0.00 | 0.38 | 0.10 | 80 | 1016.2 |
| 20260506043114 | 15 | 231 | 4.8 | 12.9 | 0.00 | 0.38 | 0.10 | 80 | 1016.2 |
| 20260506043013 | 15 | 245 | 4.8 | 12.9 | 0.00 | 0.38 | 0.10 | 80 | 1016.1 |
| 20260506042916 | 15 | 231 | 4.8 | 12.9 | 0.00 | 0.38 | 0.10 | 79 | 1016.1 |
| 20260506042808 | 15 | 222 | 4.8 | 12.9 | 0.00 | 0.38 | 0.10 | 79 | 1016.0 |
| 20260506042707 | 15 | 245 | 4.8 | 12.9 | 0.00 | 0.41 | 0.10 | 79 | 1016.1 |
| 20260506042637 | 16 | 250 | 4.8 | 14.5 | 0.00 | 0.41 | 0.10 | 79 | 1016.1 |
| 20260506042607 | 15 | 226 | 4.8 | 14.5 | 0.00 | 0.41 | 0.10 | 79 | 1016.0 |
| 20260506042527 | 16 | 204 | 4.8 | 14.5 | 0.00 | 0.41 | 0.10 | 79 | 1016.1 |
| 20260506042513 | 16 | 250 | 4.8 | 14.5 | 0.00 | 0.41 | 0.10 | 79 | 1016.1 |
| 20260506042305 | 16 | 232 | 4.8 | 14.5 | 0.00 | 0.41 | 0.10 | 79 | 1016.1 |
| 20260506042201 | 16 | 233 | 3.2 | 14.5 | 0.00 | 0.41 | 0.10 | 79 | 1016.1 |
| 20260506042102 | 16 | 233 | 4.8 | 17.7 | 0.00 | 0.41 | 0.10 | 79 | 1016.1 |
| 20260506042001 | 16 | 281 | 4.8 | 17.7 | 0.00 | 0.41 | 0.10 | 79 | 1016.1 |
| 20260506041906 | 16 | 236 | 4.8 | 17.7 | 0.00 | 0.41 | 0.10 | 79 | 1016.1 |
| 20260506041759 | 16 | 250 | 4.8 | 17.7 | 0.00 | 0.41 | 0.10 | 79 | 1016.1 |
| 20260506041700 | 16 | 229 | 3.2 | 17.7 | 0.00 | 0.41 | 0.10 | 79 | 1016.1 |
| 20260506041600 | 16 | 224 | 3.2 | 17.7 | 0.00 | 0.41 | 0.10 | 79 | 1016.1 |
| 20260506041458 | 16 | 226 | 3.2 | 17.7 | 0.00 | 0.43 | 0.10 | 79 | 1016.1 |
| 20260506041357 | 16 | 226 | 3.2 | 17.7 | 0.00 | 0.43 | 0.10 | 79 | 1016.1 |
| 20260506041252 | 16 | 246 | 3.2 | 17.7 | 0.00 | 0.43 | 0.10 | 79 | 1016.1 |
| 20260506041151 | 16 | 214 | 3.2 | 17.7 | 0.00 | 0.43 | 0.10 | 79 | 1016.1 |
| 20260506041052 | 16 | 236 | 3.2 | 11.3 | 0.00 | 0.43 | 0.10 | 79 | 1016.1 |
| 20260506040952 | 16 | 239 | 3.2 | 11.3 | 0.00 | 0.43 | 0.10 | 79 | 1016.1 |
| 20260506040851 | 16 | 231 | 3.2 | 11.3 | 0.00 | 0.43 | 0.10 | 79 | 1016.1 |
| 20260506040745 | 16 | 208 | 3.2 | 11.3 | 0.00 | 0.43 | 0.10 | 79 | 1016.1 |
| 20260506040645 | 16 | 229 | 3.2 | 11.3 | 0.00 | 0.43 | 0.10 | 79 | 1016.1 |
| 20260506040604 | 16 | 239 | 3.2 | 12.9 | 0.00 | 0.46 | 0.10 | 78 | 1016.1 |
| 20260506040545 | 16 | 185 | 3.2 | 11.3 | 0.00 | 0.43 | 0.10 | 79 | 1016.1 |
| 20260506040504 | 16 | 233 | 3.2 | 11.3 | 0.00 | 0.43 | 0.10 | 79 | 1016.1 |
| 20260506040450 | 16 | 239 | 3.2 | 12.9 | 0.00 | 0.46 | 0.10 | 78 | 1016.1 |
| 20260506040240 | 16 | 240 | 3.2 | 12.9 | 0.00 | 0.46 | 0.10 | 78 | 1016.1 |
| 20260506040140 | 16 | 251 | 3.2 | 12.9 | 0.00 | 0.46 | 0.10 | 78 | 1016.1 |
| 20260506040039 | 16 | 253 | 3.2 | 12.9 | 0.00 | 0.46 | 0.10 | 78 | 1016.1 |
| 20260506035939 | 16 | 245 | 3.2 | 12.9 | 0.00 | 0.46 | 0.10 | 78 | 1016.1 |
| 20260506035840 | 16 | 181 | 1.6 | 12.9 | 0.00 | 0.46 | 0.10 | 78 | 1016.1 |
| 20260506035733 | 16 | 219 | 1.6 | 12.9 | 0.00 | 0.46 | 0.10 | 78 | 1016.1 |
| 20260506035632 | 16 | 233 | 1.6 | 12.9 | 0.00 | 0.46 | 0.10 | 79 | 1016.1 |
| 20260506035531 | 16 | 233 | 1.6 | 12.9 | 0.00 | 0.46 | 0.10 | 78 | 1016.1 |
| 20260506035431 | 16 | 249 | 1.6 | 12.9 | 0.00 | 0.46 | 0.10 | 79 | 1016.0 |
| 20260506035333 | 16 | 235 | 1.6 | 9.7 | 0.00 | 0.46 | 0.10 | 78 | 1016.0 |
| 20260506035232 | 16 | 233 | 1.6 | 9.7 | 0.00 | 0.46 | 0.10 | 78 | 1016.0 |
| 20260506035129 | 16 | 240 | 1.6 | 9.7 | 0.00 | 0.46 | 0.10 | 78 | 1016.0 |
| 20260506035028 | 16 | 253 | 1.6 | 8.0 | 0.00 | 0.48 | 0.10 | 78 | 1016.0 |
| 20260506034927 | 16 | 235 | 1.6 | 6.4 | 0.00 | 0.48 | 0.10 | 79 | 1016.0 |
| 20260506034827 | 16 | 240 | 1.6 | 6.4 | 0.00 | 0.48 | 0.10 | 79 | 1016.0 |
| 20260506034726 | 16 | 245 | 1.6 | 6.4 | 0.00 | 0.48 | 0.10 | 79 | 1016.0 |
| 20260506034623 | 16 | 243 | 1.6 | 9.7 | 0.00 | 0.51 | 0.10 | 79 | 1015.9 |
| 20260506034523 | 16 | 239 | 1.6 | 9.7 | 0.00 | 0.51 | 0.10 | 78 | 1015.9 |
| 20260506034421 | 16 | 230 | 1.6 | 9.7 | 0.00 | 0.51 | 0.10 | 78 | 1015.9 |
| 20260506034322 | 16 | 238 | 1.6 | 9.7 | 0.00 | 0.51 | 0.10 | 78 | 1015.9 |
| 20260506034218 | 16 | 211 | 1.6 | 9.7 | 0.00 | 0.51 | 0.10 | 79 | 1015.9 |
| 20260506034118 | 16 | 243 | 1.6 | 14.5 | 0.00 | 0.51 | 0.10 | 78 | 1015.8 |
| 20260506034018 | 16 | 217 | 1.6 | 14.5 | 0.00 | 0.53 | 0.10 | 79 | 1015.8 |
| 20260506033916 | 16 | 236 | 1.6 | 14.5 | 0.00 | 0.53 | 0.10 | 79 | 1015.8 |
| 20260506033815 | 16 | 231 | 1.6 | 14.5 | 0.00 | 0.53 | 0.10 | 79 | 1015.8 |
| 20260506033710 | 16 | 260 | 1.6 | 14.5 | 0.00 | 0.56 | 0.10 | 79 | 1015.8 |
| 20260506033609 | 16 | 228 | 1.6 | 14.5 | 0.00 | 0.56 | 0.10 | 79 | 1015.8 |
| 20260506033509 | 16 | 233 | 1.6 | 14.5 | 0.00 | 0.56 | 0.10 | 79 | 1015.7 |
| 20260506033410 | 16 | 262 | 3.2 | 14.5 | 0.00 | 0.58 | 0.10 | 79 | 1015.7 |
| 20260506033310 | 16 | 262 | 3.2 | 14.5 | 0.00 | 0.58 | 0.10 | 79 | 1015.7 |
| 20260506033202 | 16 | 243 | 3.2 | 14.5 | 0.00 | 0.58 | 0.10 | 79 | 1015.6 |
| 20260506033101 | 16 | 248 | 3.2 | 9.7 | 0.00 | 0.58 | 0.10 | 79 | 1015.6 |
| 20260506033001 | 16 | 231 | 3.2 | 9.7 | 0.00 | 0.61 | 0.10 | 79 | 1015.6 |
| 20260506032902 | 16 | 231 | 1.6 | 9.7 | 0.00 | 0.61 | 0.10 | 79 | 1015.6 |
| 20260506032802 | 16 | 231 | 3.2 | 9.7 | 0.00 | 0.61 | 0.10 | 79 | 1015.5 |
| 20260506032659 | 16 | 232 | 3.2 | 9.7 | 0.00 | 0.61 | 0.10 | 79 | 1015.5 |
| 20260506032559 | 16 | 231 | 3.2 | 9.7 | 0.00 | 0.61 | 0.10 | 79 | 1015.5 |
| 20260506032500 | 16 | 232 | 1.6 | 9.7 | 0.00 | 0.61 | 0.10 | 79 | 1015.5 |
| 20260506032357 | 16 | 222 | 1.6 | 6.4 | 0.00 | 0.61 | 0.10 | 79 | 1015.5 |
| 20260506032258 | 16 | 212 | 1.6 | 6.4 | 0.00 | 0.61 | 0.10 | 79 | 1015.5 |
| 20260506032153 | 16 | 239 | 1.6 | 6.4 | 0.00 | 0.61 | 0.10 | 79 | 1015.4 |
| 20260506032054 | 16 | 235 | 1.6 | 6.4 | 0.00 | 0.64 | 0.10 | 79 | 1015.4 |
| 20260506031954 | 16 | 235 | 1.6 | 6.4 | 0.00 | 0.64 | 0.10 | 79 | 1015.4 |
| 20260506031852 | 16 | 235 | 3.2 | 6.4 | 0.00 | 0.64 | 0.10 | 79 | 1015.4 |
| 20260506031750 | 16 | 226 | 1.6 | 6.4 | 0.00 | 0.64 | 0.10 | 79 | 1015.4 |
| 20260506031646 | 16 | 212 | 1.6 | 6.4 | 0.00 | 0.64 | 0.10 | 79 | 1015.3 |
| 20260506031545 | 16 | 224 | 1.6 | 6.4 | 0.00 | 0.64 | 0.10 | 79 | 1015.3 |
| 20260506031445 | 16 | 203 | 1.6 | 6.4 | 0.00 | 0.64 | 0.10 | 79 | 1015.4 |
| 20260506031345 | 16 | 229 | 1.6 | 4.8 | 0.00 | 0.64 | 0.10 | 79 | 1015.3 |
| 20260506031244 | 16 | 203 | 1.6 | 4.8 | 0.00 | 0.64 | 0.10 | 79 | 1015.3 |
| 20260506031138 | 16 | 214 | 1.6 | 4.8 | 0.00 | 0.64 | 0.10 | 79 | 1015.3 |
| 20260506031037 | 16 | 226 | 1.6 | 4.8 | 0.00 | 0.64 | 0.10 | 79 | 1015.3 |
| 20260506030937 | 16 | 248 | 1.6 | 4.8 | 0.00 | 0.64 | 0.10 | 79 | 1015.3 |
| 20260506030837 | 16 | 210 | 1.6 | 4.8 | 0.00 | 0.64 | 0.10 | 79 | 1015.4 |
| 20260506030740 | 16 | 210 | 1.6 | 4.8 | 0.00 | 0.64 | 0.10 | 79 | 1015.4 |
| 20260506030638 | 16 | 210 | 1.6 | 4.8 | 0.00 | 0.64 | 0.10 | 79 | 1015.4 |
| 20260506030535 | 16 | 210 | 1.6 | 4.8 | 0.00 | 0.64 | 0.10 | 79 | 1015.4 |
| 20260506030435 | 16 | 210 | 1.6 | 4.8 | 0.00 | 0.64 | 0.10 | 79 | 1015.3 |
| 20260506030334 | 16 | 211 | 1.6 | 4.8 | 0.00 | 0.64 | 0.10 | 79 | 1015.3 |
| 20260506030235 | 16 | 218 | 1.6 | 4.8 | 0.00 | 0.64 | 0.10 | 79 | 1015.3 |
| 20260506030127 | 16 | 238 | 1.6 | 4.8 | 0.00 | 0.64 | 0.10 | 79 | 1015.3 |
| 20260506030025 | 16 | 228 | 1.6 | 4.8 | 0.00 | 0.64 | 0.10 | 79 | 1015.3 |
| 20260506025926 | 16 | 228 | 1.6 | 4.8 | 0.00 | 0.64 | 0.10 | 79 | 1015.3 |
| 20260506025826 | 16 | 228 | 1.6 | 4.8 | 0.00 | 0.64 | 0.10 | 78 | 1015.3 |
| 20260506025732 | 16 | 229 | 1.6 | 4.8 | 0.00 | 0.64 | 0.10 | 78 | 1015.2 |
| 20260506025625 | 17 | 228 | 0.0 | 4.8 | 0.00 | 0.64 | 0.10 | 78 | 1015.2 |
| 20260506025524 | 17 | 214 | 0.0 | 4.8 | 0.00 | 0.64 | 0.10 | 78 | 1015.3 |
| 20260506025423 | 17 | 200 | 0.0 | 4.8 | 0.00 | 0.64 | 0.10 | 78 | 1015.2 |
| 20260506025322 | 17 | 200 | 1.6 | 4.8 | 0.00 | 0.64 | 0.10 | 78 | 1015.2 |
| 20260506025223 | 17 | 204 | 1.6 | 4.8 | 0.00 | 0.64 | 0.10 | 78 | 1015.2 |
| 20260506025119 | 17 | 204 | 1.6 | 4.8 | 0.00 | 0.64 | 0.10 | 78 | 1015.2 |
| 20260506025017 | 17 | 204 | 1.6 | 4.8 | 0.00 | 0.64 | 0.10 | 78 | 1015.1 |
| 20260506024918 | 17 | 212 | 1.6 | 6.4 | 0.00 | 0.64 | 0.10 | 78 | 1015.2 |
| 20260506024815 | 17 | 177 | 1.6 | 6.4 | 0.00 | 0.64 | 0.10 | 77 | 1015.1 |
| 20260506024716 | 17 | 177 | 1.6 | 6.4 | 0.00 | 0.64 | 0.10 | 77 | 1015.1 |
| 20260506024611 | 17 | 177 | 1.6 | 6.4 | 0.00 | 0.64 | 0.10 | 77 | 1015.1 |
| 20260506024512 | 17 | 207 | 3.2 | 6.4 | 0.00 | 0.64 | 0.10 | 77 | 1015.0 |
| 20260506024412 | 17 | 214 | 3.2 | 8.0 | 0.00 | 0.64 | 0.10 | 77 | 1015.0 |
| 20260506024310 | 17 | 214 | 3.2 | 8.0 | 0.00 | 0.64 | 0.10 | 77 | 1014.9 |
| 20260506024209 | 17 | 214 | 3.2 | 8.0 | 0.00 | 0.64 | 0.10 | 77 | 1015.0 |
| 20260506024108 | 17 | 232 | 3.2 | 8.0 | 0.00 | 0.64 | 0.10 | 77 | 1014.9 |
| 20260506024005 | 17 | 231 | 3.2 | 8.0 | 0.00 | 0.64 | 0.10 | 76 | 1014.9 |
| 20260506023905 | 17 | 208 | 3.2 | 8.0 | 0.00 | 0.64 | 0.10 | 77 | 1014.9 |
| 20260506023804 | 17 | 225 | 3.2 | 8.0 | 0.00 | 0.64 | 0.10 | 76 | 1014.9 |
| 20260506023704 | 17 | 233 | 3.2 | 8.0 | 0.00 | 0.64 | 0.10 | 76 | 1014.9 |
| 20260506023557 | 17 | 204 | 3.2 | 8.0 | 0.00 | 0.64 | 0.10 | 76 | 1014.8 |
| 20260506023456 | 17 | 204 | 3.2 | 8.0 | 0.00 | 0.64 | 0.10 | 76 | 1014.9 |
| 20260506023417 | 17 | 245 | 3.2 | 9.7 | 0.00 | 0.64 | 0.10 | 76 | 1014.7 |
| 20260506023356 | 17 | 228 | 3.2 | 8.0 | 0.00 | 0.64 | 0.10 | 76 | 1014.8 |
| 20260506023315 | 17 | 231 | 3.2 | 9.7 | 0.00 | 0.64 | 0.10 | 76 | 1014.7 |
| 20260506023304 | 17 | 245 | 3.2 | 9.7 | 0.00 | 0.64 | 0.10 | 76 | 1014.7 |
| 20260506023050 | 17 | 170 | 4.8 | 9.7 | 0.00 | 0.64 | 0.10 | 76 | 1014.7 |
| 20260506022950 | 17 | 207 | 4.8 | 9.7 | 0.00 | 0.64 | 0.10 | 76 | 1014.7 |
| 20260506022849 | 17 | 203 | 4.8 | 9.7 | 0.00 | 0.64 | 0.10 | 76 | 1014.7 |
| 20260506022750 | 17 | 233 | 4.8 | 9.7 | 0.00 | 0.64 | 0.10 | 76 | 1014.8 |
| 20260506022651 | 17 | 231 | 3.2 | 9.7 | 0.00 | 0.64 | 0.10 | 76 | 1014.8 |
| 20260506022544 | 17 | 214 | 3.2 | 9.7 | 0.00 | 0.64 | 0.10 | 76 | 1014.8 |
| 20260506022444 | 17 | 231 | 3.2 | 9.7 | 0.00 | 0.64 | 0.10 | 76 | 1014.8 |
| 20260506022343 | 17 | 149 | 3.2 | 9.7 | 0.00 | 0.64 | 0.10 | 76 | 1014.8 |
| 20260506022243 | 17 | 203 | 3.2 | 8.0 | 0.00 | 0.64 | 0.10 | 76 | 1014.9 |
| 20260506022144 | 17 | 204 | 3.2 | 6.4 | 0.00 | 0.64 | 0.10 | 76 | 1014.8 |
| 20260506022038 | 17 | 229 | 3.2 | 8.0 | 0.00 | 0.64 | 0.10 | 76 | 1014.8 |
| 20260506021937 | 17 | 174 | 3.2 | 9.7 | 0.00 | 0.64 | 0.10 | 76 | 1014.9 |
| 20260506021857 | 17 | 155 | 4.8 | 11.3 | 0.00 | 0.64 | 0.10 | 76 | 1014.8 |
| 20260506021837 | 17 | 155 | 3.2 | 9.7 | 0.00 | 0.64 | 0.10 | 76 | 1014.8 |
| 20260506021753 | 17 | 158 | 3.2 | 11.3 | 0.00 | 0.64 | 0.10 | 76 | 1014.9 |
| 20260506021742 | 17 | 155 | 4.8 | 11.3 | 0.00 | 0.64 | 0.10 | 76 | 1014.8 |
| 20260506021538 | 17 | 155 | 4.8 | 11.3 | 0.00 | 0.64 | 0.10 | 76 | 1014.8 |
| 20260506021435 | 17 | 155 | 4.8 | 11.3 | 0.00 | 0.64 | 0.10 | 76 | 1014.8 |
| 20260506021333 | 17 | 222 | 4.8 | 11.3 | 0.00 | 0.64 | 0.10 | 76 | 1014.9 |
| 20260506021234 | 17 | 238 | 4.8 | 11.3 | 0.00 | 0.64 | 0.10 | 76 | 1014.8 |
| 20260506021134 | 17 | 238 | 4.8 | 11.3 | 0.00 | 0.64 | 0.10 | 76 | 1014.9 |
| 20260506021026 | 17 | 231 | 4.8 | 11.3 | 0.00 | 0.64 | 0.10 | 76 | 1014.7 |
| 20260506020926 | 17 | 250 | 4.8 | 11.3 | 0.00 | 0.64 | 0.10 | 76 | 1014.8 |
| 20260506020825 | 17 | 250 | 4.8 | 11.3 | 0.00 | 0.64 | 0.10 | 76 | 1014.7 |
| 20260506020726 | 17 | 258 | 4.8 | 11.3 | 0.00 | 0.64 | 0.10 | 76 | 1014.7 |
| 20260506020627 | 17 | 221 | 4.8 | 9.7 | 0.00 | 0.64 | 0.10 | 76 | 1014.7 |
| 20260506020519 | 17 | 219 | 4.8 | 9.7 | 0.00 | 0.64 | 0.10 | 76 | 1014.7 |
| 20260506020419 | 17 | 203 | 4.8 | 9.7 | 0.00 | 0.64 | 0.10 | 76 | 1014.8 |
| 20260506020320 | 17 | 207 | 4.8 | 11.3 | 0.00 | 0.64 | 0.10 | 76 | 1014.8 |
| 20260506020220 | 17 | 136 | 4.8 | 11.3 | 0.00 | 0.64 | 0.10 | 75 | 1014.9 |
| 20260506020121 | 17 | 253 | 4.8 | 11.3 | 0.00 | 0.64 | 0.10 | 75 | 1014.9 |
| 20260506020017 | 17 | 186 | 4.8 | 11.3 | 0.00 | 0.64 | 0.10 | 75 | 1014.8 |
| 20260506015917 | 17 | 231 | 4.8 | 11.3 | 0.00 | 0.64 | 0.10 | 75 | 1014.8 |
| 20260506015816 | 17 | 231 | 4.8 | 11.3 | 0.00 | 0.64 | 0.10 | 75 | 1014.8 |
| 20260506015716 | 17 | 202 | 4.8 | 11.3 | 0.00 | 0.64 | 0.10 | 75 | 1014.8 |
| 20260506015615 | 17 | 238 | 4.8 | 12.9 | 0.00 | 0.64 | 0.10 | 75 | 1014.8 |
| 20260506015507 | 17 | 136 | 4.8 | 12.9 | 0.00 | 0.64 | 0.10 | 75 | 1014.8 |
| 20260506015408 | 17 | 195 | 4.8 | 12.9 | 0.00 | 0.64 | 0.10 | 75 | 1014.8 |
| 20260506015308 | 18 | 204 | 4.8 | 12.9 | 0.00 | 0.64 | 0.10 | 75 | 1014.7 |
| 20260506015207 | 18 | 208 | 3.2 | 12.9 | 0.00 | 0.64 | 0.10 | 75 | 1014.7 |
| 20260506015110 | 18 | 219 | 3.2 | 12.9 | 0.00 | 0.64 | 0.10 | 74 | 1014.7 |
| 20260506015002 | 18 | 215 | 3.2 | 12.9 | 0.00 | 0.64 | 0.10 | 74 | 1014.7 |
| 20260506014901 | 18 | 144 | 3.2 | 12.9 | 0.00 | 0.64 | 0.10 | 74 | 1014.7 |
| 20260506014801 | 18 | 226 | 3.2 | 12.9 | 0.00 | 0.64 | 0.10 | 74 | 1014.7 |
| 20260506014702 | 18 | 124 | 3.2 | 12.9 | 0.00 | 0.64 | 0.10 | 74 | 1014.7 |
| 20260506014607 | 18 | 153 | 3.2 | 11.3 | 0.00 | 0.64 | 0.10 | 74 | 1014.7 |
| 20260506014455 | 18 | 122 | 3.2 | 11.3 | 0.00 | 0.64 | 0.10 | 74 | 1014.6 |
| 20260506014356 | 18 | 141 | 3.2 | 11.3 | 0.00 | 0.64 | 0.10 | 74 | 1014.7 |
| 20260506014255 | 18 | 139 | 3.2 | 11.3 | 0.00 | 0.64 | 0.10 | 73 | 1014.7 |
| 20260506014155 | 18 | 132 | 3.2 | 11.3 | 0.00 | 0.64 | 0.10 | 73 | 1014.7 |
| 20260506014058 | 18 | 143 | 4.8 | 11.3 | 0.00 | 0.64 | 0.10 | 73 | 1014.6 |
| 20260506013954 | 18 | 147 | 3.2 | 9.7 | 0.00 | 0.64 | 0.10 | 73 | 1014.6 |
| 20260506013853 | 18 | 186 | 3.2 | 9.7 | 0.00 | 0.64 | 0.10 | 72 | 1014.7 |
| 20260506013753 | 18 | 146 | 3.2 | 9.7 | 0.00 | 0.64 | 0.10 | 72 | 1014.7 |
| 20260506013651 | 18 | 141 | 3.2 | 9.7 | 0.00 | 0.64 | 0.10 | 72 | 1014.7 |
| 20260506013552 | 18 | 217 | 3.2 | 9.7 | 0.00 | 0.64 | 0.10 | 72 | 1014.7 |
| 20260506013444 | 18 | 200 | 3.2 | 9.7 | 0.00 | 0.64 | 0.10 | 72 | 1014.7 |
| 20260506013344 | 18 | 225 | 3.2 | 9.7 | 0.00 | 0.66 | 0.10 | 71 | 1014.7 |
| 20260506013244 | 18 | 236 | 3.2 | 8.0 | 0.00 | 0.66 | 0.10 | 71 | 1014.7 |
| 20260506013143 | 18 | 200 | 3.2 | 8.0 | 0.00 | 0.66 | 0.10 | 70 | 1014.7 |
| 20260506013045 | 18 | 141 | 1.6 | 8.0 | 0.00 | 0.66 | 0.10 | 70 | 1014.7 |
| 20260506012938 | 18 | 110 | 1.6 | 8.0 | 0.00 | 0.66 | 0.10 | 70 | 1014.7 |
| 20260506012838 | 18 | 158 | 1.6 | 8.0 | 0.00 | 0.66 | 0.10 | 70 | 1014.7 |
| 20260506012800 | 18 | 215 | 3.2 | 8.0 | 0.00 | 0.66 | 0.10 | 70 | 1014.6 |
| 20260506012738 | 18 | 146 | 3.2 | 8.0 | 0.00 | 0.66 | 0.10 | 70 | 1014.7 |
| 20260506012655 | 18 | 129 | 3.2 | 8.0 | 0.00 | 0.66 | 0.10 | 69 | 1014.6 |
| 20260506012645 | 18 | 215 | 3.2 | 8.0 | 0.00 | 0.66 | 0.10 | 70 | 1014.6 |
| 20260506012432 | 18 | 116 | 3.2 | 8.0 | 0.00 | 0.66 | 0.10 | 70 | 1014.6 |
| 20260506012251 | 18 | 225 | 3.2 | 8.0 | 0.00 | 0.66 | 0.10 | 71 | 1014.6 |
| 20260506012232 | 18 | 134 | 3.2 | 8.0 | 0.00 | 0.66 | 0.10 | 70 | 1014.6 |
| 20260506012147 | 18 | 122 | 3.2 | 8.0 | 0.00 | 0.66 | 0.10 | 71 | 1014.6 |
| 20260506012137 | 18 | 225 | 3.2 | 8.0 | 0.00 | 0.66 | 0.10 | 71 | 1014.6 |
| 20260506011927 | 18 | 118 | 3.2 | 9.7 | 0.00 | 0.66 | 0.10 | 71 | 1014.6 |
| 20260506011826 | 18 | 120 | 3.2 | 9.7 | 0.00 | 0.66 | 0.10 | 71 | 1014.6 |
| 20260506011748 | 18 | 207 | 3.2 | 9.7 | 0.00 | 0.66 | 0.10 | 71 | 1014.6 |
| 20260506011726 | 18 | 192 | 3.2 | 9.7 | 0.00 | 0.66 | 0.10 | 71 | 1014.6 |
| 20260506011643 | 18 | 200 | 3.2 | 9.7 | 0.00 | 0.66 | 0.10 | 71 | 1014.6 |
| 20260506011633 | 18 | 207 | 3.2 | 9.7 | 0.00 | 0.66 | 0.10 | 71 | 1014.6 |
| 20260506011422 | 18 | 160 | 3.2 | 9.7 | 0.00 | 0.66 | 0.10 | 71 | 1014.5 |
| 20260506011322 | 18 | 240 | 3.2 | 9.7 | 0.00 | 0.66 | 0.10 | 72 | 1014.5 |
| 20260506011222 | 18 | 150 | 3.2 | 9.7 | 0.00 | 0.66 | 0.10 | 72 | 1014.5 |
| 20260506011122 | 18 | 205 | 3.2 | 9.7 | 0.00 | 0.66 | 0.10 | 72 | 1014.5 |
| 20260506011021 | 18 | 136 | 3.2 | 9.7 | 0.00 | 0.66 | 0.10 | 72 | 1014.5 |
| 20260506010917 | 18 | 163 | 3.2 | 6.4 | 0.00 | 0.66 | 0.10 | 73 | 1014.5 |
| 20260506010817 | 18 | 136 | 3.2 | 6.4 | 0.00 | 0.66 | 0.10 | 73 | 1014.5 |
| 20260506010717 | 18 | 139 | 3.2 | 9.7 | 0.00 | 0.66 | 0.10 | 73 | 1014.5 |
| 20260506010616 | 18 | 134 | 3.2 | 9.7 | 0.00 | 0.66 | 0.10 | 73 | 1014.5 |
| 20260506010516 | 18 | 124 | 3.2 | 9.7 | 0.00 | 0.66 | 0.10 | 73 | 1014.5 |
| 20260506010408 | 18 | 115 | 3.2 | 9.7 | 0.00 | 0.66 | 0.10 | 73 | 1014.4 |
| 20260506010307 | 18 | 116 | 3.2 | 9.7 | 0.00 | 0.66 | 0.10 | 73 | 1014.5 |
| 20260506010240 | 18 | 233 | 3.2 | 9.7 | 0.00 | 0.69 | 0.10 | 73 | 1014.5 |
| 20260506010207 | 18 | 167 | 3.2 | 9.7 | 0.00 | 0.66 | 0.10 | 73 | 1014.5 |
| 20260506010125 | 18 | 127 | 1.6 | 9.7 | 0.00 | 0.69 | 0.10 | 73 | 1014.5 |
| 20260506010114 | 18 | 233 | 3.2 | 9.7 | 0.00 | 0.69 | 0.10 | 73 | 1014.5 |
| 20260506005906 | 18 | 221 | 3.2 | 9.7 | 0.00 | 0.69 | 0.10 | 73 | 1014.5 |
| 20260506005805 | 18 | 151 | 3.2 | 9.7 | 0.00 | 0.69 | 0.10 | 73 | 1014.5 |
| 20260506005724 | 18 | 229 | 3.2 | 11.3 | 0.00 | 0.69 | 0.10 | 74 | 1014.5 |
| 20260506005705 | 18 | 176 | 3.2 | 8.0 | 0.00 | 0.69 | 0.10 | 73 | 1014.5 |
| 20260506005618 | 18 | 174 | 3.2 | 9.7 | 0.00 | 0.69 | 0.10 | 73 | 1014.4 |
| 20260506005608 | 18 | 229 | 3.2 | 11.3 | 0.00 | 0.69 | 0.10 | 74 | 1014.5 |
| 20260506005357 | 17 | 230 | 3.2 | 11.3 | 0.00 | 0.69 | 0.10 | 74 | 1014.4 |
| 20260506005257 | 17 | 231 | 3.2 | 11.3 | 0.00 | 0.69 | 0.10 | 74 | 1014.4 |
| 20260506005157 | 17 | 230 | 4.8 | 11.3 | 0.00 | 0.69 | 0.10 | 74 | 1014.4 |
| 20260506005058 | 17 | 138 | 3.2 | 11.3 | 0.00 | 0.69 | 0.10 | 73 | 1014.4 |
| 20260506004957 | 17 | 190 | 3.2 | 11.3 | 0.00 | 0.69 | 0.10 | 74 | 1014.4 |
| 20260506004850 | 17 | 172 | 3.2 | 11.3 | 0.00 | 0.69 | 0.10 | 74 | 1014.4 |
| 20260506004749 | 17 | 150 | 4.8 | 11.3 | 0.00 | 0.69 | 0.10 | 74 | 1014.4 |
| 20260506004649 | 17 | 160 | 4.8 | 11.3 | 0.00 | 0.69 | 0.10 | 74 | 1014.4 |
| 20260506004550 | 17 | 226 | 3.2 | 11.3 | 0.00 | 0.69 | 0.10 | 74 | 1014.4 |
| 20260506004347 | 17 | 168 | 3.2 | 11.3 | 0.00 | 0.69 | 0.10 | 75 | 1014.4 |
| 20260506004248 | 17 | 217 | 3.2 | 9.7 | 0.00 | 0.69 | 0.10 | 75 | 1014.4 |
| 20260506004147 | 17 | 229 | 3.2 | 9.7 | 0.00 | 0.69 | 0.10 | 75 | 1014.4 |
| 20260506004045 | 17 | 226 | 4.8 | 9.7 | 0.00 | 0.69 | 0.10 | 74 | 1014.4 |
| 20260506003946 | 17 | 235 | 3.2 | 9.7 | 0.00 | 0.69 | 0.10 | 74 | 1014.4 |
| 20260506003839 | 18 | 197 | 3.2 | 9.7 | 0.00 | 0.69 | 0.10 | 74 | 1014.4 |
| 20260506003740 | 18 | 141 | 3.2 | 8.0 | 0.00 | 0.69 | 0.10 | 75 | 1014.4 |
| 20260506003639 | 18 | 239 | 3.2 | 8.0 | 0.00 | 0.69 | 0.10 | 75 | 1014.4 |
| 20260506003540 | 18 | 148 | 3.2 | 8.0 | 0.00 | 0.69 | 0.10 | 75 | 1014.4 |
| 20260506003440 | 17 | 107 | 3.2 | 6.4 | 0.00 | 0.69 | 0.10 | 75 | 1014.4 |
| 20260506003333 | 17 | 221 | 3.2 | 6.4 | 0.00 | 0.69 | 0.10 | 75 | 1014.4 |
| 20260506003232 | 17 | 221 | 3.2 | 6.4 | 0.00 | 0.69 | 0.10 | 75 | 1014.4 |
| 20260506003131 | 17 | 207 | 3.2 | 6.4 | 0.00 | 0.69 | 0.10 | 75 | 1014.5 |
| 20260506003031 | 17 | 213 | 3.2 | 8.0 | 0.00 | 0.69 | 0.10 | 76 | 1014.5 |
| 20260506002934 | 17 | 217 | 3.2 | 8.0 | 0.00 | 0.69 | 0.10 | 76 | 1014.4 |
| 20260506002828 | 17 | 228 | 4.8 | 11.3 | 0.00 | 0.69 | 0.10 | 76 | 1014.4 |
| 20260506002725 | 17 | 217 | 4.8 | 11.3 | 0.00 | 0.69 | 0.10 | 76 | 1014.3 |
| 20260506002703 | 17 | 238 | 4.8 | 11.3 | 0.00 | 0.69 | 0.10 | 75 | 1014.4 |
| 20260506002625 | 17 | 235 | 4.8 | 11.3 | 0.00 | 0.69 | 0.10 | 76 | 1014.4 |
| 20260506002545 | 17 | 229 | 4.8 | 11.3 | 0.00 | 0.69 | 0.10 | 75 | 1014.4 |
| 20260506002534 | 17 | 238 | 4.8 | 11.3 | 0.00 | 0.69 | 0.10 | 75 | 1014.4 |
| 20260506002319 | 17 | 238 | 4.8 | 11.3 | 0.00 | 0.69 | 0.10 | 75 | 1014.4 |
| 20260506002219 | 17 | 238 | 4.8 | 11.3 | 0.00 | 0.69 | 0.10 | 74 | 1014.4 |
| 20260506002119 | 17 | 241 | 4.8 | 11.3 | 0.00 | 0.69 | 0.10 | 74 | 1014.4 |
| 20260506002019 | 17 | 267 | 4.8 | 11.3 | 0.00 | 0.69 | 0.10 | 74 | 1014.4 |
| 20260506001921 | 17 | 236 | 4.8 | 11.3 | 0.00 | 0.69 | 0.10 | 75 | 1014.4 |
| 20260506001814 | 17 | 238 | 4.8 | 11.3 | 0.00 | 0.69 | 0.10 | 75 | 1014.4 |
| 20260506001714 | 17 | 236 | 4.8 | 11.3 | 0.00 | 0.69 | 0.10 | 75 | 1014.4 |
| 20260506001648 | 17 | 193 | 4.8 | 11.3 | 0.00 | 0.69 | 0.10 | 75 | 1014.4 |
| 20260506001613 | 17 | 225 | 4.8 | 11.3 | 0.00 | 0.69 | 0.10 | 75 | 1014.4 |
| 20260506001547 | 17 | 200 | 4.8 | 11.3 | 0.00 | 0.69 | 0.10 | 75 | 1014.4 |
| 20260506001534 | 17 | 193 | 4.8 | 11.3 | 0.00 | 0.69 | 0.10 | 75 | 1014.4 |
| 20260506001309 | 17 | 181 | 4.8 | 11.3 | 0.00 | 0.69 | 0.10 | 75 | 1014.4 |
| 20260506001210 | 17 | 219 | 4.8 | 11.3 | 0.00 | 0.69 | 0.10 | 74 | 1014.4 |
| 20260506001109 | 17 | 225 | 4.8 | 11.3 | 0.00 | 0.69 | 0.10 | 74 | 1014.4 |
| 20260506001009 | 17 | 233 | 4.8 | 11.3 | 0.00 | 0.69 | 0.10 | 75 | 1014.4 |
| 20260506000911 | 17 | 224 | 4.8 | 9.7 | 0.00 | 0.69 | 0.10 | 75 | 1014.4 |
| 20260506000802 | 17 | 231 | 4.8 | 9.7 | 0.00 | 0.69 | 0.10 | 75 | 1014.4 |
| 20260506000701 | 17 | 172 | 4.8 | 9.7 | 0.00 | 0.69 | 0.10 | 75 | 1014.4 |
| 20260506000602 | 17 | 135 | 4.8 | 9.7 | 0.00 | 0.69 | 0.10 | 75 | 1014.4 |
| 20260506000502 | 17 | 210 | 4.8 | 9.7 | 0.00 | 0.69 | 0.10 | 75 | 1014.4 |
| 20260506000404 | 17 | 150 | 4.8 | 9.7 | 0.00 | 0.69 | 0.10 | 75 | 1014.4 |
| 20260506000256 | 17 | 176 | 4.8 | 9.7 | 0.00 | 0.69 | 0.10 | 74 | 1014.4 |
| 20260506000157 | 17 | 211 | 4.8 | 9.7 | 0.00 | 0.69 | 0.10 | 75 | 1014.4 |
| 20260506000056 | 17 | 195 | 4.8 | 9.7 | 0.00 | 0.69 | 0.10 | 75 | 1014.4 |
| 20260505235955 | 17 | 231 | 4.8 | 9.7 | 0.00 | 0.69 | 0.10 | 75 | 1014.4 |
| 20260505235858 | 17 | 228 | 4.8 | 9.7 | 0.00 | 0.69 | 0.10 | 75 | 1014.4 |
| 20260505235751 | 17 | 215 | 4.8 | 9.7 | 0.00 | 0.69 | 0.10 | 75 | 1014.4 |
| 20260505235650 | 17 | 204 | 4.8 | 9.7 | 0.00 | 0.69 | 0.10 | 75 | 1014.4 |
| 20260505235610 | 17 | 242 | 4.8 | 9.7 | 0.00 | 0.69 | 0.10 | 75 | 1014.4 |
| 20260505235549 | 17 | 225 | 4.8 | 9.7 | 0.00 | 0.69 | 0.10 | 74 | 1014.4 |
| 20260505235511 | 17 | 250 | 4.8 | 9.7 | 0.00 | 0.69 | 0.10 | 74 | 1014.4 |
| 20260505235455 | 17 | 242 | 4.8 | 9.7 | 0.00 | 0.69 | 0.10 | 75 | 1014.4 |
| 20260505235243 | 17 | 155 | 4.8 | 9.7 | 0.00 | 0.69 | 0.10 | 74 | 1014.4 |
| 20260505235143 | 17 | 207 | 4.8 | 9.7 | 0.00 | 0.69 | 0.10 | 74 | 1014.4 |
| 20260505235043 | 17 | 239 | 4.8 | 9.7 | 0.00 | 0.69 | 0.10 | 74 | 1014.4 |
| 20260505234944 | 17 | 239 | 4.8 | 9.7 | 0.00 | 0.69 | 0.10 | 74 | 1014.4 |
| 20260505234845 | 18 | 219 | 4.8 | 9.7 | 0.00 | 0.69 | 0.10 | 74 | 1014.4 |
| 20260505234739 | 18 | 167 | 3.2 | 9.7 | 0.00 | 0.69 | 0.10 | 74 | 1014.4 |
| 20260505234640 | 18 | 238 | 3.2 | 9.7 | 0.00 | 0.69 | 0.10 | 74 | 1014.4 |
| 20260505234540 | 18 | 217 | 3.2 | 8.0 | 0.00 | 0.69 | 0.10 | 74 | 1014.4 |
| 20260505234439 | 18 | 221 | 3.2 | 11.3 | 0.00 | 0.69 | 0.10 | 74 | 1014.4 |
| 20260505234353 | 18 | 207 | 3.2 | 11.3 | 0.00 | 0.69 | 0.10 | 74 | 1014.4 |
| 20260505234233 | 18 | 121 | 3.2 | 11.3 | 0.00 | 0.69 | 0.10 | 74 | 1014.3 |
| 20260505234132 | 18 | 212 | 3.2 | 11.3 | 0.00 | 0.69 | 0.10 | 74 | 1014.3 |
| 20260505234056 | 18 | 174 | 3.2 | 11.3 | 0.00 | 0.69 | 0.10 | 73 | 1014.3 |
| 20260505234031 | 18 | 174 | 3.2 | 11.3 | 0.00 | 0.69 | 0.10 | 73 | 1014.3 |
| 20260505233949 | 18 | 208 | 3.2 | 11.3 | 0.00 | 0.69 | 0.10 | 73 | 1014.3 |
| 20260505233939 | 18 | 174 | 3.2 | 11.3 | 0.00 | 0.69 | 0.10 | 73 | 1014.3 |
| 20260505233727 | 18 | 194 | 3.2 | 11.3 | 0.00 | 0.69 | 0.10 | 74 | 1014.3 |
| 20260505233627 | 18 | 148 | 3.2 | 11.3 | 0.00 | 0.69 | 0.10 | 73 | 1014.3 |
| 20260505233551 | 18 | 232 | 3.2 | 8.0 | 0.00 | 0.69 | 0.10 | 74 | 1014.3 |
| 20260505233527 | 18 | 197 | 3.2 | 11.3 | 0.00 | 0.69 | 0.10 | 74 | 1014.3 |
| 20260505233446 | 18 | 235 | 3.2 | 8.0 | 0.00 | 0.69 | 0.10 | 74 | 1014.4 |
| 20260505233433 | 18 | 232 | 3.2 | 8.0 | 0.00 | 0.69 | 0.10 | 74 | 1014.3 |
| 20260505233224 | 18 | 219 | 3.2 | 8.0 | 0.00 | 0.69 | 0.10 | 74 | 1014.3 |
| 20260505233123 | 18 | 236 | 3.2 | 8.0 | 0.00 | 0.69 | 0.10 | 74 | 1014.3 |
| 20260505233024 | 18 | 231 | 3.2 | 8.0 | 0.00 | 0.69 | 0.10 | 74 | 1014.3 |
| 20260505232921 | 18 | 242 | 3.2 | 8.0 | 0.00 | 0.69 | 0.10 | 74 | 1014.3 |
| 20260505232821 | 18 | 208 | 3.2 | 8.0 | 0.00 | 0.69 | 0.10 | 74 | 1014.3 |
| 20260505232714 | 18 | 143 | 3.2 | 8.0 | 0.00 | 0.69 | 0.10 | 73 | 1014.4 |
| 20260505232613 | 18 | 140 | 3.2 | 8.0 | 0.00 | 0.69 | 0.10 | 73 | 1014.4 |
| 20260505232513 | 18 | 225 | 3.2 | 8.0 | 0.00 | 0.69 | 0.10 | 74 | 1014.4 |
| 20260505232414 | 18 | 217 | 3.2 | 12.9 | 0.00 | 0.69 | 0.10 | 74 | 1014.3 |
| 20260505232316 | 18 | 170 | 3.2 | 12.9 | 0.00 | 0.69 | 0.10 | 74 | 1014.4 |
| 20260505232212 | 18 | 143 | 3.2 | 12.9 | 0.00 | 0.69 | 0.10 | 74 | 1014.4 |
| 20260505232111 | 18 | 204 | 3.2 | 12.9 | 0.00 | 0.69 | 0.10 | 74 | 1014.4 |
| 20260505232027 | 18 | 231 | 3.2 | 12.9 | 0.00 | 0.69 | 0.10 | 74 | 1014.3 |
| 20260505232011 | 18 | 134 | 3.2 | 12.9 | 0.00 | 0.69 | 0.10 | 74 | 1014.3 |
| 20260505231923 | 18 | 200 | 3.2 | 12.9 | 0.00 | 0.69 | 0.10 | 74 | 1014.3 |
| 20260505231913 | 18 | 231 | 3.2 | 12.9 | 0.00 | 0.69 | 0.10 | 74 | 1014.3 |
| 20260505231705 | 18 | 226 | 3.2 | 12.9 | 0.00 | 0.69 | 0.10 | 74 | 1014.3 |
| 20260505231606 | 18 | 115 | 3.2 | 12.9 | 0.00 | 0.69 | 0.10 | 74 | 1014.3 |
| 20260505231504 | 18 | 181 | 3.2 | 12.9 | 0.00 | 0.69 | 0.10 | 73 | 1014.3 |
| 20260505231404 | 18 | 217 | 3.2 | 8.0 | 0.00 | 0.69 | 0.10 | 74 | 1014.3 |
| 20260505231303 | 18 | 150 | 3.2 | 8.0 | 0.00 | 0.69 | 0.10 | 74 | 1014.3 |
| 20260505231157 | 18 | 152 | 3.2 | 8.0 | 0.00 | 0.69 | 0.10 | 74 | 1014.3 |
| 20260505231057 | 17 | 141 | 3.2 | 8.0 | 0.00 | 0.69 | 0.10 | 74 | 1014.3 |
| 20260505230958 | 17 | 232 | 3.2 | 9.7 | 0.00 | 0.69 | 0.10 | 74 | 1014.3 |
| 20260505230857 | 18 | 225 | 3.2 | 9.7 | 0.00 | 0.69 | 0.10 | 73 | 1014.3 |
| 20260505230837 | 18 | 231 | 3.2 | 9.7 | 0.00 | 0.69 | 0.10 | 73 | 1014.3 |
| 20260505230758 | 18 | 231 | 3.2 | 9.7 | 0.00 | 0.69 | 0.10 | 73 | 1014.3 |
| 20260505230650 | 18 | 233 | 3.2 | 9.7 | 0.00 | 0.69 | 0.10 | 73 | 1014.3 |
| 20260505230549 | 18 | 245 | 3.2 | 9.7 | 0.00 | 0.71 | 0.10 | 73 | 1014.4 |
| 20260505230449 | 18 | 255 | 3.2 | 9.7 | 0.00 | 0.71 | 0.10 | 74 | 1014.3 |
| 20260505230349 | 18 | 143 | 3.2 | 9.7 | 0.00 | 0.71 | 0.10 | 73 | 1014.3 |
| 20260505230251 | 18 | 226 | 3.2 | 9.7 | 0.00 | 0.71 | 0.10 | 73 | 1014.3 |
| 20260505230146 | 18 | 218 | 3.2 | 9.7 | 0.00 | 0.71 | 0.10 | 73 | 1014.4 |
| 20260505230046 | 18 | 165 | 3.2 | 9.7 | 0.00 | 0.71 | 0.10 | 74 | 1014.4 |
| 20260505225945 | 18 | 150 | 3.2 | 8.0 | 0.00 | 0.71 | 0.10 | 74 | 1014.4 |
| 20260505225846 | 18 | 170 | 3.2 | 8.0 | 0.00 | 0.71 | 0.10 | 74 | 1014.4 |
| 20260505225746 | 18 | 239 | 3.2 | 8.0 | 0.00 | 0.71 | 0.10 | 74 | 1014.4 |
| 20260505225639 | 18 | 150 | 3.2 | 8.0 | 0.00 | 0.71 | 0.10 | 74 | 1014.4 |
| 20260505225537 | 18 | 235 | 3.2 | 8.0 | 0.00 | 0.71 | 0.10 | 74 | 1014.4 |
| 20260505225436 | 18 | 236 | 3.2 | 8.0 | 0.00 | 0.71 | 0.10 | 74 | 1014.4 |
| 20260505225337 | 18 | 236 | 3.2 | 8.0 | 0.00 | 0.71 | 0.10 | 73 | 1014.4 |
| 20260505225241 | 18 | 214 | 3.2 | 8.0 | 0.00 | 0.71 | 0.10 | 73 | 1014.4 |
| 20260505225131 | 18 | 238 | 3.2 | 8.0 | 0.00 | 0.71 | 0.10 | 74 | 1014.4 |
| 20260505225032 | 18 | 200 | 3.2 | 8.0 | 0.00 | 0.71 | 0.10 | 74 | 1014.4 |
| 20260505224931 | 18 | 225 | 3.2 | 9.7 | 0.00 | 0.71 | 0.10 | 74 | 1014.4 |
| 20260505224832 | 18 | 228 | 3.2 | 9.7 | 0.00 | 0.71 | 0.10 | 74 | 1014.4 |
| 20260505224734 | 18 | 181 | 3.2 | 9.7 | 0.00 | 0.71 | 0.10 | 74 | 1014.4 |
| 20260505224631 | 18 | 240 | 3.2 | 9.7 | 0.00 | 0.71 | 0.10 | 74 | 1014.4 |
| 20260505224529 | 18 | 219 | 3.2 | 9.7 | 0.00 | 0.71 | 0.10 | 74 | 1014.5 |
| 20260505224429 | 18 | 198 | 3.2 | 9.7 | 0.00 | 0.71 | 0.10 | 74 | 1014.4 |
| 20260505224328 | 18 | 208 | 3.2 | 9.7 | 0.00 | 0.71 | 0.10 | 74 | 1014.4 |
| 20260505224227 | 18 | 185 | 3.2 | 9.7 | 0.00 | 0.71 | 0.10 | 74 | 1014.5 |
| 20260505224120 | 18 | 221 | 3.2 | 9.7 | 0.00 | 0.71 | 0.10 | 73 | 1014.4 |
| 20260505224019 | 18 | 232 | 3.2 | 9.7 | 0.00 | 0.71 | 0.10 | 73 | 1014.4 |
| 20260505223920 | 18 | 224 | 3.2 | 9.7 | 0.00 | 0.71 | 0.10 | 73 | 1014.5 |
| 20260505223820 | 18 | 242 | 3.2 | 9.7 | 0.00 | 0.71 | 0.10 | 72 | 1014.5 |
| 20260505223720 | 18 | 225 | 3.2 | 8.0 | 0.00 | 0.71 | 0.10 | 73 | 1014.5 |
| 20260505223620 | 18 | 137 | 3.2 | 8.0 | 0.00 | 0.71 | 0.10 | 72 | 1014.5 |
| 20260505223518 | 18 | 137 | 4.8 | 8.0 | 0.00 | 0.71 | 0.10 | 72 | 1014.5 |
| 20260505223418 | 18 | 223 | 4.8 | 8.0 | 0.00 | 0.71 | 0.10 | 71 | 1014.5 |
| 20260505223315 | 18 | 212 | 4.8 | 8.0 | 0.00 | 0.71 | 0.10 | 71 | 1014.6 |
| 20260505223215 | 18 | 186 | 4.8 | 8.0 | 0.00 | 0.71 | 0.10 | 70 | 1014.6 |
| 20260505223109 | 18 | 132 | 4.8 | 8.0 | 0.00 | 0.71 | 0.10 | 70 | 1014.6 |
| 20260505223007 | 18 | 191 | 4.8 | 9.7 | 0.00 | 0.71 | 0.10 | 70 | 1014.6 |
| 20260505222908 | 18 | 243 | 4.8 | 9.7 | 0.00 | 0.71 | 0.10 | 70 | 1014.6 |
| 20260505222807 | 18 | 248 | 4.8 | 9.7 | 0.00 | 0.71 | 0.10 | 70 | 1014.6 |
| 20260505222710 | 18 | 136 | 4.8 | 9.7 | 0.00 | 0.71 | 0.10 | 70 | 1014.6 |
| 20260505222601 | 19 | 212 | 4.8 | 9.7 | 0.00 | 0.71 | 0.10 | 69 | 1014.6 |
| 20260505222501 | 19 | 218 | 3.2 | 9.7 | 0.00 | 0.71 | 0.10 | 69 | 1014.6 |
| 20260505222402 | 19 | 203 | 3.2 | 9.7 | 0.00 | 0.71 | 0.10 | 69 | 1014.6 |
| 20260505222301 | 19 | 205 | 3.2 | 9.7 | 0.00 | 0.71 | 0.10 | 68 | 1014.6 |
| 20260505222202 | 19 | 135 | 3.2 | 9.7 | 0.00 | 0.71 | 0.10 | 68 | 1014.6 |
| 20260505222100 | 19 | 211 | 3.2 | 9.7 | 0.00 | 0.71 | 0.10 | 68 | 1014.6 |
| 20260505221959 | 19 | 236 | 3.2 | 9.7 | 0.00 | 0.71 | 0.10 | 68 | 1014.6 |
| 20260505221900 | 19 | 105 | 3.2 | 9.7 | 0.00 | 0.71 | 0.10 | 68 | 1014.7 |
| 20260505221757 | 19 | 161 | 3.2 | 9.7 | 0.00 | 0.71 | 0.10 | 67 | 1014.7 |
| 20260505221657 | 19 | 238 | 3.2 | 9.7 | 0.00 | 0.71 | 0.10 | 66 | 1014.7 |
| 20260505221550 | 20 | 204 | 3.2 | 8.0 | 0.00 | 0.71 | 0.10 | 66 | 1014.7 |
| 20260505221450 | 20 | 228 | 3.2 | 8.0 | 0.00 | 0.71 | 0.10 | 66 | 1014.7 |
| 20260505221349 | 20 | 167 | 3.2 | 8.0 | 0.00 | 0.71 | 0.10 | 66 | 1014.7 |
| 20260505221250 | 20 | 116 | 3.2 | 8.0 | 0.00 | 0.71 | 0.10 | 66 | 1014.7 |
| 20260505221151 | 20 | 150 | 1.6 | 8.0 | 0.00 | 0.71 | 0.10 | 67 | 1014.7 |
| 20260505221045 | 20 | 134 | 1.6 | 8.0 | 0.00 | 0.71 | 0.10 | 68 | 1014.7 |
| 20260505220945 | 20 | 117 | 1.6 | 8.0 | 0.00 | 0.71 | 0.10 | 68 | 1014.7 |
| 20260505220851 | 18 | 125 | 1.6 | 9.7 | 0.00 | 0.71 | 0.10 | 69 | 1014.7 |
| 20260505220846 | 20 | 231 | 1.6 | 8.0 | 0.00 | 0.71 | 0.10 | 68 | 1014.7 |
| 20260505220751 | 19 | 164 | 1.6 | 8.0 | 0.00 | 0.71 | 0.10 | 68 | 1014.7 |
| 20260505220736 | 19 | 135 | 1.6 | 6.4 | 0.00 | 0.71 | 0.10 | 68 | 1014.7 |
| 20260505220539 | 19 | 98 | 1.6 | 6.4 | 0.00 | 0.71 | 0.10 | 68 | 1014.7 |
| 20260505220515 | 19 | 136 | 1.6 | 6.4 | 0.00 | 0.71 | 0.10 | 69 | 1014.7 |
| 20260505220340 | 19 | 126 | 1.6 | 6.4 | 0.00 | 0.71 | 0.10 | 69 | 1014.7 |
| 20260505220254 | 18 | 125 | 1.6 | 6.4 | 0.00 | 0.71 | 0.10 | 69 | 1014.7 |
| 20260505220243 | 18 | 125 | 1.6 | 9.7 | 0.00 | 0.71 | 0.10 | 69 | 1014.7 |
| 20260505220033 | 18 | 152 | 3.2 | 9.7 | 0.00 | 0.71 | 0.10 | 70 | 1014.8 |
| 20260505215933 | 18 | 76 | 3.2 | 9.7 | 0.00 | 0.71 | 0.10 | 69 | 1014.7 |
| 20260505215834 | 18 | 108 | 3.2 | 9.7 | 0.00 | 0.71 | 0.10 | 70 | 1014.8 |
| 20260505215733 | 18 | 78 | 1.6 | 9.7 | 0.00 | 0.71 | 0.10 | 71 | 1014.8 |
| 20260505215633 | 18 | 150 | 1.6 | 9.7 | 0.00 | 0.71 | 0.10 | 70 | 1014.8 |
| 20260505215529 | 18 | 277 | 1.6 | 9.7 | 0.00 | 0.71 | 0.10 | 71 | 1014.7 |
| 20260505215430 | 18 | 273 | 1.6 | 9.7 | 0.00 | 0.71 | 0.10 | 71 | 1014.8 |
| 20260505215329 | 18 | 260 | 1.6 | 9.7 | 0.00 | 0.71 | 0.10 | 70 | 1014.8 |
| 20260505215228 | 18 | 200 | 1.6 | 9.7 | 0.00 | 0.71 | 0.10 | 70 | 1014.8 |
| 20260505215128 | 18 | 155 | 1.6 | 8.0 | 0.00 | 0.71 | 0.10 | 69 | 1014.8 |
| 20260505215020 | 18 | 153 | 1.6 | 8.0 | 0.00 | 0.71 | 0.10 | 70 | 1014.8 |
| 20260505214919 | 18 | 212 | 1.6 | 6.4 | 0.00 | 0.71 | 0.10 | 71 | 1014.8 |
| 20260505214844 | 18 | 224 | 1.6 | 6.4 | 0.00 | 0.71 | 0.10 | 70 | 1014.8 |
| 20260505214820 | 18 | 245 | 1.6 | 6.4 | 0.00 | 0.71 | 0.10 | 70 | 1014.8 |
| 20260505214738 | 18 | 224 | 1.6 | 6.4 | 0.00 | 0.71 | 0.10 | 70 | 1014.8 |
| 20260505214728 | 18 | 224 | 1.6 | 6.4 | 0.00 | 0.71 | 0.10 | 70 | 1014.8 |
| 20260505214517 | 18 | 260 | 1.6 | 6.4 | 0.00 | 0.71 | 0.10 | 69 | 1014.8 |
| 20260505214418 | 18 | 260 | 1.6 | 6.4 | 0.00 | 0.71 | 0.10 | 69 | 1014.9 |
| 20260505214317 | 18 | 257 | 1.6 | 6.4 | 0.00 | 0.71 | 0.10 | 69 | 1014.9 |
| 20260505214215 | 18 | 227 | 1.6 | 6.4 | 0.00 | 0.71 | 0.10 | 70 | 1014.9 |
| 20260505214116 | 18 | 141 | 1.6 | 6.4 | 0.00 | 0.71 | 0.10 | 70 | 1014.9 |
| 20260505214010 | 18 | 126 | 1.6 | 6.4 | 0.00 | 0.71 | 0.10 | 70 | 1014.9 |
| 20260505213908 | 18 | 149 | 1.6 | 6.4 | 0.00 | 0.71 | 0.10 | 71 | 1014.9 |
| 20260505213807 | 18 | 210 | 1.6 | 6.4 | 0.00 | 0.71 | 0.10 | 70 | 1014.9 |
| 20260505213707 | 18 | 219 | 1.6 | 6.4 | 0.00 | 0.71 | 0.10 | 70 | 1014.9 |
| 20260505213610 | 18 | 150 | 1.6 | 6.4 | 0.00 | 0.71 | 0.10 | 71 | 1014.9 |
| 20260505213503 | 18 | 105 | 0.0 | 3.2 | 0.00 | 0.71 | 0.10 | 71 | 1014.9 |
| 20260505213403 | 18 | 151 | 0.0 | 3.2 | 0.00 | 0.71 | 0.10 | 71 | 1014.9 |
| 20260505213304 | 18 | 163 | 0.0 | 3.2 | 0.00 | 0.71 | 0.10 | 72 | 1014.9 |
| 20260505213204 | 18 | 58 | 0.0 | 3.2 | 0.00 | 0.71 | 0.10 | 72 | 1014.9 |
| 20260505213106 | 18 | 33 | 0.0 | 3.2 | 0.00 | 0.71 | 0.10 | 72 | 1014.9 |
| 20260505213002 | 18 | 34 | 0.0 | 3.2 | 0.00 | 0.71 | 0.10 | 72 | 1014.9 |
| 20260505212900 | 18 | 36 | 0.0 | 3.2 | 0.00 | 0.71 | 0.10 | 72 | 1015.0 |
| 20260505212759 | 18 | 70 | 0.0 | 3.2 | 0.00 | 0.71 | 0.10 | 72 | 1014.9 |
| 20260505212657 | 18 | 74 | 0.0 | 3.2 | 0.00 | 0.71 | 0.10 | 72 | 1015.0 |
| 20260505212600 | 18 | 13 | 0.0 | 3.2 | 0.00 | 0.71 | 0.10 | 72 | 1015.0 |
| 20260505212455 | 18 | 13 | 0.0 | 3.2 | 0.00 | 0.71 | 0.10 | 72 | 1014.9 |
| 20260505212353 | 18 | 97 | 0.0 | 1.6 | 0.00 | 0.71 | 0.10 | 71 | 1015.0 |
| 20260505212254 | 18 | 117 | 0.0 | 1.6 | 0.00 | 0.71 | 0.10 | 72 | 1015.0 |
| 20260505212152 | 18 | 117 | 0.0 | 3.2 | 0.00 | 0.71 | 0.10 | 72 | 1015.0 |
| 20260505212050 | 18 | 117 | 0.0 | 3.2 | 0.00 | 0.71 | 0.10 | 73 | 1015.0 |
| 20260505211949 | 18 | 117 | 0.0 | 3.2 | 0.00 | 0.71 | 0.10 | 73 | 1015.0 |